Air Quality Table

TIMESTAMP NO2 O3 PM2.5 TEMP HUM AIRPRES WS WD NO
2021-11-30 01:00 N/A 77.98 µg/m3 2.29 µg/m3 12.34 °C N/A 1,002.62 mbar 3.47 m/s 306.87 Deg N/A
2021-11-30 00:00 N/A 81.71 µg/m3 3.26 µg/m3 11.86 °C N/A 1,002.32 mbar 4.38 m/s 293.35 Deg N/A
2021-11-29 23:00 N/A 83.15 µg/m3 1.59 µg/m3 10.63 °C N/A 1,002.23 mbar 4 m/s 312.6 Deg N/A
2021-11-29 22:00 N/A 82.92 µg/m3 1.78 µg/m3 11 °C N/A 1,001.30 mbar 3.05 m/s 305.8 Deg N/A
2021-11-29 21:00 N/A 81.75 µg/m3 5.32 µg/m3 11.71 °C N/A 1,000.26 mbar 3.11 m/s 325.48 Deg N/A
2021-11-29 20:00 N/A 81.26 µg/m3 8 µg/m3 13.52 °C N/A 999.13 mbar 4.03 m/s 319.62 Deg N/A
2021-11-29 19:00 N/A 80.5 µg/m3 5.22 µg/m3 14.35 °C N/A 997.95 mbar 4.95 m/s 300.98 Deg N/A
2021-11-29 18:00 N/A 76.02 µg/m3 4.11 µg/m3 14.44 °C N/A 996.99 mbar 5.11 m/s 304.89 Deg N/A
2021-11-29 17:00 N/A 72.4 µg/m3 3.54 µg/m3 12.97 °C N/A 996.64 mbar 4.83 m/s 299.28 Deg N/A
2021-11-29 16:00 N/A 72.61 µg/m3 6.02 µg/m3 13.71 °C N/A 995.76 mbar 4.4 m/s 302.6 Deg N/A
2021-11-29 15:00 N/A 73.45 µg/m3 6.21 µg/m3 15.11 °C N/A 995.13 mbar 4.83 m/s 285.92 Deg N/A
2021-11-29 14:00 N/A 72.28 µg/m3 5.47 µg/m3 15.17 °C N/A 995.17 mbar 4.44 m/s 285.24 Deg N/A
2021-11-29 13:00 N/A 71.83 µg/m3 2.5 µg/m3 15.19 °C N/A 995.92 mbar 4.79 m/s 280.22 Deg N/A
2021-11-29 12:00 N/A 70.98 µg/m3 4.24 µg/m3 15.32 °C N/A 996.51 mbar 4.02 m/s 295.1 Deg N/A
2021-11-29 11:00 N/A 69.6 µg/m3 3.03 µg/m3 15.03 °C N/A 996.84 mbar 4.06 m/s 286.07 Deg N/A
2021-11-29 10:00 N/A 67.85 µg/m3 3.35 µg/m3 14.61 °C N/A 996.98 mbar 4.1 m/s 299 Deg N/A
2021-11-29 09:00 N/A 69.09 µg/m3 2.1 µg/m3 14.19 °C N/A 996.87 mbar 4.18 m/s 295.28 Deg N/A
2021-11-29 08:00 N/A 68.29 µg/m3 3.54 µg/m3 13.83 °C N/A 996.41 mbar 4.19 m/s 295.33 Deg N/A
2021-11-29 07:00 N/A 69.11 µg/m3 2.99 µg/m3 13.79 °C N/A 995.76 mbar 3.75 m/s 295.32 Deg N/A
2021-11-29 06:00 N/A 70.69 µg/m3 1.88 µg/m3 14 °C N/A 995.29 mbar 4.15 m/s 299.4 Deg N/A
2021-11-29 05:00 N/A 71.95 µg/m3 1.08 µg/m3 13.75 °C N/A 995.04 mbar 3.55 m/s 303.23 Deg N/A
2021-11-29 04:00 N/A 72.73 µg/m3 1.59 µg/m3 13.51 °C N/A 994.79 mbar 2.73 m/s 313.17 Deg N/A
2021-11-29 03:00 N/A 74.35 µg/m3 2.39 µg/m3 14.08 °C N/A 994.45 mbar 3.06 m/s 314.23 Deg N/A
2021-11-29 02:00 N/A 74.98 µg/m3 2.71 µg/m3 13.76 °C N/A 994.31 mbar 2.3 m/s 313.6 Deg N/A
2021-11-29 01:00 N/A 72.82 µg/m3 1.86 µg/m3 13.28 °C N/A 994.56 mbar 1.86 m/s 315.3 Deg N/A
2021-11-29 00:00 N/A 74.22 µg/m3 3.79 µg/m3 13.98 °C N/A 994.44 mbar 1.8 m/s 317.03 Deg N/A
2021-11-28 23:00 N/A 73.65 µg/m3 3.58 µg/m3 14.47 °C N/A 994.30 mbar 1.59 m/s 312.45 Deg N/A
2021-11-28 22:00 N/A 76.35 µg/m3 3.71 µg/m3 14.67 °C N/A 994.30 mbar 1.94 m/s 309.52 Deg N/A
2021-11-28 21:00 N/A 79.52 µg/m3 3.73 µg/m3 15.21 °C N/A 993.77 mbar 2.1 m/s 303.77 Deg N/A
2021-11-28 20:00 N/A 81.14 µg/m3 2.22 µg/m3 15.3 °C N/A 993.53 mbar 2.04 m/s 312.65 Deg N/A
2021-11-28 19:00 N/A 79.98 µg/m3 1.8 µg/m3 14.81 °C N/A 993.12 mbar 2.11 m/s 311.13 Deg N/A
2021-11-28 18:00 N/A 80.18 µg/m3 1.76 µg/m3 14.72 °C N/A 992.44 mbar 2.85 m/s 311.88 Deg N/A
2021-11-28 17:00 N/A 78.88 µg/m3 0.21 µg/m3 14.66 °C N/A 991.91 mbar 2.61 m/s 311.45 Deg N/A
2021-11-28 16:00 N/A 76.87 µg/m3 3.77 µg/m3 16.64 °C N/A 991.51 mbar 2.58 m/s 290 Deg N/A
2021-11-28 15:00 N/A 74.2 µg/m3 2.39 µg/m3 16.3 °C N/A 991.61 mbar 1.8 m/s 289.5 Deg N/A
2021-11-28 14:00 N/A 76.55 µg/m3 0.21 µg/m3 16.14 °C N/A 992.12 mbar 2.95 m/s 270.78 Deg N/A
2021-11-28 13:00 N/A 74.3 µg/m3 -0.22 µg/m3 15.56 °C N/A 992.57 mbar 2.86 m/s 235.76 Deg N/A
2021-11-28 12:00 N/A 73.2 µg/m3 -0.22 µg/m3 14.59 °C N/A 994.76 mbar 2.38 m/s 236.87 Deg N/A
2021-11-28 11:00 N/A 82.23 µg/m3 1.99 µg/m3 13.78 °C N/A 995.53 mbar 2.87 m/s 219.5 Deg N/A
2021-11-28 10:00 N/A 84.01 µg/m3 0.44 µg/m3 13.26 °C N/A 996.01 mbar 2.9 m/s 253.77 Deg N/A
2021-11-28 09:00 N/A 86.02 µg/m3 -1.09 µg/m3 13.24 °C N/A 996.31 mbar 2.69 m/s 268.65 Deg N/A
2021-11-28 08:00 N/A 84.89 µg/m3 5.11 µg/m3 13.41 °C N/A 995.68 mbar 2.12 m/s 285.12 Deg N/A
2021-11-28 07:00 N/A 86.62 µg/m3 -0.58 µg/m3 13.48 °C N/A 995.90 mbar 3 m/s 282.28 Deg N/A
2021-11-28 06:00 N/A 86.09 µg/m3 1.08 µg/m3 14.42 °C N/A 995.36 mbar 2.89 m/s 288.55 Deg N/A
2021-11-28 05:00 N/A 85.95 µg/m3 5.3 µg/m3 16.98 °C N/A 995.11 mbar 3.53 m/s 285.58 Deg N/A
2021-11-28 04:00 N/A 85.27 µg/m3 4.64 µg/m3 17.6 °C N/A 994.92 mbar 3.33 m/s 283.36 Deg N/A
2021-11-28 03:00 N/A 86.22 µg/m3 3.92 µg/m3 17.43 °C N/A 995.08 mbar 2.62 m/s 283.55 Deg N/A
2021-11-28 02:00 N/A 86.77 µg/m3 3.16 µg/m3 17.61 °C N/A 995.38 mbar 2.84 m/s 288.85 Deg N/A
2021-11-28 01:00 N/A 87.01 µg/m3 4.83 µg/m3 17.73 °C N/A 995.97 mbar 3.83 m/s 280.78 Deg N/A
2021-11-28 00:00 N/A 84.79 µg/m3 4.83 µg/m3 17.69 °C N/A 995.56 mbar 2.86 m/s 273.86 Deg N/A
2021-11-27 23:00 N/A 85.36 µg/m3 6.98 µg/m3 18.12 °C N/A 995.80 mbar 3.05 m/s 284.43 Deg N/A
2021-11-27 22:00 N/A 84.67 µg/m3 7.06 µg/m3 17.97 °C N/A 996.21 mbar 2.51 m/s 280.33 Deg N/A
2021-11-27 21:00 N/A 83.88 µg/m3 4.79 µg/m3 17.67 °C N/A 996.42 mbar 2.07 m/s 290.38 Deg N/A
2021-11-27 20:00 N/A 83.41 µg/m3 3.67 µg/m3 17.5 °C N/A 996.16 mbar 2.28 m/s 290.92 Deg N/A
2021-11-27 19:00 N/A 81.45 µg/m3 4.35 µg/m3 17.03 °C N/A 995.63 mbar 2.05 m/s 299.03 Deg N/A
2021-11-27 18:00 N/A 75.79 µg/m3 5.19 µg/m3 16.66 °C N/A 995.11 mbar 1.83 m/s 312.4 Deg N/A
2021-11-27 17:00 N/A 76.26 µg/m3 5.45 µg/m3 17.02 °C N/A 994.52 mbar 1.55 m/s 312.81 Deg N/A
2021-11-27 16:00 N/A 76.2 µg/m3 5.28 µg/m3 17.88 °C N/A 993.71 mbar 1.19 m/s 317.26 Deg N/A
2021-11-27 15:00 N/A 78.03 µg/m3 6.04 µg/m3 18.16 °C N/A 993.16 mbar 1.45 m/s 324.4 Deg N/A
2021-11-27 14:00 N/A 76.34 µg/m3 6.45 µg/m3 17.8 °C N/A 992.64 mbar 1.8 m/s 337.47 Deg N/A
2021-11-27 13:00 N/A 68.47 µg/m3 7.44 µg/m3 16.33 °C N/A 993.34 mbar 1.48 m/s 260.95 Deg N/A
2021-11-27 12:00 N/A 61.06 µg/m3 6.49 µg/m3 15.16 °C N/A 994.09 mbar 1.72 m/s 350.9 Deg N/A
2021-11-27 11:00 N/A 50.86 µg/m3 6 µg/m3 14.67 °C N/A 995.06 mbar 1.5 m/s 180.27 Deg N/A
2021-11-27 10:00 N/A 47.86 µg/m3 7.44 µg/m3 14.19 °C N/A 995.81 mbar 0.73 m/s 331.89 Deg N/A
2021-11-27 09:00 N/A 63.66 µg/m3 8.25 µg/m3 14.5 °C N/A 996.11 mbar 1.39 m/s 296.4 Deg N/A
2021-11-27 08:00 N/A 61.71 µg/m3 10.33 µg/m3 17.39 °C N/A 995.31 mbar 1.78 m/s 260.47 Deg N/A
2021-11-27 07:00 N/A 67.84 µg/m3 12.52 µg/m3 17.99 °C N/A 995.02 mbar 1.6 m/s 262.22 Deg N/A
2021-11-27 06:00 N/A 73.77 µg/m3 7.87 µg/m3 17.95 °C N/A 995.23 mbar 1.99 m/s 255.02 Deg N/A
2021-11-27 05:00 N/A 78.15 µg/m3 6.6 µg/m3 17.82 °C N/A 995.41 mbar 2.14 m/s 271.37 Deg N/A
2021-11-27 04:00 N/A 78.6 µg/m3 3.05 µg/m3 17.68 °C N/A 995.85 mbar 2.33 m/s 273.63 Deg N/A
2021-11-27 03:00 N/A 78.09 µg/m3 1.18 µg/m3 17.58 °C N/A 996.73 mbar 2.01 m/s 275.42 Deg N/A
2021-11-27 02:00 N/A 79.25 µg/m3 0.46 µg/m3 17.55 °C N/A 997.48 mbar 2.08 m/s 283.32 Deg N/A
2021-11-27 01:00 N/A 80.61 µg/m3 1.44 µg/m3 16.9 °C N/A 998.01 mbar 1.82 m/s 272.58 Deg N/A
2021-11-27 00:00 N/A 73.77 µg/m3 -0.28 µg/m3 15.96 °C N/A 998.24 mbar 1.19 m/s 263.58 Deg N/A
2021-11-26 23:00 N/A 75.04 µg/m3 0.86 µg/m3 16.07 °C N/A 998.56 mbar 1.03 m/s 283.83 Deg N/A
2021-11-26 22:00 N/A 78.35 µg/m3 1.48 µg/m3 16.41 °C N/A 998.64 mbar 1.41 m/s 287.33 Deg N/A
2021-11-26 21:00 N/A 80.1 µg/m3 1.74 µg/m3 16.6 °C N/A 998.61 mbar 1.52 m/s 298.73 Deg N/A
2021-11-26 20:00 N/A 80 µg/m3 0.86 µg/m3 16.72 °C N/A 998.54 mbar 2.32 m/s 298.45 Deg N/A
2021-11-26 19:00 N/A 79.53 µg/m3 0.42 µg/m3 16.7 °C N/A 998.41 mbar 1.98 m/s 298.95 Deg N/A
2021-11-26 18:00 N/A 77.97 µg/m3 1.97 µg/m3 16.53 °C N/A 998.03 mbar 2.42 m/s 296.02 Deg N/A
2021-11-26 17:00 N/A 73.72 µg/m3 3.2 µg/m3 16.76 °C N/A 997.38 mbar 2.44 m/s 292.93 Deg N/A
2021-11-26 16:00 N/A 74.66 µg/m3 3.31 µg/m3 17.59 °C N/A 996.89 mbar 2.98 m/s 299.33 Deg N/A
2021-11-26 15:00 N/A 76.69 µg/m3 3.01 µg/m3 18.37 °C N/A 996.58 mbar 3.06 m/s 306.3 Deg N/A
2021-11-26 14:00 N/A 72.73 µg/m3 4.71 µg/m3 18.75 °C N/A 996.78 mbar 3.33 m/s 296.92 Deg N/A
2021-11-26 13:00 N/A 76.73 µg/m3 6.7 µg/m3 18.97 °C N/A 996.59 mbar 3.68 m/s 298.37 Deg N/A
2021-11-26 12:00 N/A 70.64 µg/m3 4.88 µg/m3 19.11 °C N/A 996.84 mbar 3.62 m/s 285.66 Deg N/A
2021-11-26 11:00 N/A 69.21 µg/m3 4.94 µg/m3 18.98 °C N/A 996.98 mbar 2.82 m/s 275.12 Deg N/A
2021-11-26 10:00 N/A 65 µg/m3 7.7 µg/m3 18.2 °C N/A 997.02 mbar 2.13 m/s 280.83 Deg N/A
2021-11-26 09:00 N/A 56.42 µg/m3 8.46 µg/m3 17.86 °C N/A 996.85 mbar 1.5 m/s 285.23 Deg N/A
2021-11-26 08:00 N/A 15.21 µg/m3 5.26 µg/m3 15.45 °C N/A 996.74 mbar 0.83 m/s 284.11 Deg N/A
2021-11-26 07:00 N/A 43.22 µg/m3 4.64 µg/m3 15.45 °C N/A 996.37 mbar 0.79 m/s 298.95 Deg N/A
2021-11-26 06:00 N/A 65.09 µg/m3 3.9 µg/m3 15.46 °C N/A 995.88 mbar 0.83 m/s 307.01 Deg N/A
2021-11-26 05:00 N/A 73.1 µg/m3 2.78 µg/m3 15 °C N/A 995.63 mbar 0.75 m/s 309.02 Deg N/A
2021-11-26 04:00 N/A 78.95 µg/m3 2.44 µg/m3 15.84 °C N/A 995.61 mbar 1.38 m/s 317.75 Deg N/A
2021-11-26 03:00 N/A 78.68 µg/m3 3.37 µg/m3 16.46 °C N/A 995.40 mbar 1.41 m/s 310.05 Deg N/A
2021-11-26 02:00 N/A 76.85 µg/m3 4.58 µg/m3 16.45 °C N/A 995.20 mbar 1.32 m/s 312.53 Deg N/A
2021-11-26 01:00 N/A 74.45 µg/m3 4.3 µg/m3 16.34 °C N/A 995.41 mbar 1.33 m/s 310.23 Deg N/A
2021-11-26 00:00 N/A 72.7 µg/m3 5.64 µg/m3 16.59 °C N/A 995.54 mbar 1.19 m/s 306.05 Deg N/A
2021-11-25 23:00 N/A 71.51 µg/m3 7.3 µg/m3 16.57 °C N/A 995.90 mbar 0.98 m/s 309.84 Deg N/A
2021-11-25 22:00 N/A 66.67 µg/m3 5.83 µg/m3 16.27 °C N/A 995.90 mbar 0.48 m/s 313.39 Deg N/A
2021-11-25 21:00 N/A 71.64 µg/m3 4.26 µg/m3 16.87 °C N/A 995.33 mbar 0.84 m/s 326.76 Deg N/A
2021-11-25 20:00 N/A 73.48 µg/m3 9.35 µg/m3 16.62 °C N/A 995.13 mbar 0.99 m/s 311.19 Deg N/A
2021-11-25 19:00 N/A 68.27 µg/m3 9.38 µg/m3 17.84 °C N/A 994.82 mbar 1.02 m/s 329.02 Deg N/A
2021-11-25 18:00 N/A 60.36 µg/m3 6.74 µg/m3 18.36 °C N/A 994.19 mbar 1.04 m/s 313.54 Deg N/A
2021-11-25 17:00 N/A 57.46 µg/m3 5.75 µg/m3 19.13 °C N/A 994.08 mbar 1.14 m/s 281.95 Deg N/A
2021-11-25 16:00 N/A 70.36 µg/m3 8.51 µg/m3 20.06 °C N/A 993.99 mbar 1.7 m/s 272.88 Deg N/A
2021-11-25 15:00 N/A 71.31 µg/m3 8.7 µg/m3 20.51 °C N/A 994.34 mbar 2.07 m/s 265.2 Deg N/A
2021-11-25 14:00 N/A 62.87 µg/m3 7.36 µg/m3 19.11 °C N/A 995.02 mbar 2.11 m/s 216.62 Deg N/A
2021-11-25 13:00 N/A 50.18 µg/m3 5.47 µg/m3 16.48 °C N/A 996.25 mbar 0.99 m/s 215.67 Deg N/A
2021-11-25 12:00 N/A 62.23 µg/m3 4.13 µg/m3 15.13 °C N/A 997.27 mbar 0.99 m/s 246.16 Deg N/A
2021-11-25 11:00 N/A 75.87 µg/m3 8.76 µg/m3 15.41 °C N/A 998.09 mbar 2.79 m/s 273.45 Deg N/A
2021-11-25 10:00 N/A 51.08 µg/m3 6.7 µg/m3 17.15 °C N/A 998.10 mbar 2.35 m/s 171.32 Deg N/A
2021-11-25 09:00 N/A 45.15 µg/m3 6.49 µg/m3 16.27 °C N/A 999.37 mbar 1.96 m/s 244.35 Deg N/A
2021-11-25 08:00 N/A 50.63 µg/m3 4.66 µg/m3 16.02 °C N/A 999.48 mbar 1.7 m/s 276.8 Deg N/A
2021-11-25 07:00 N/A 51.15 µg/m3 9.04 µg/m3 16.41 °C N/A 999.66 mbar 2.69 m/s 152.53 Deg N/A
2021-11-25 06:00 N/A 37.68 µg/m3 7.68 µg/m3 15.48 °C N/A 999.97 mbar 0.98 m/s 166.05 Deg N/A
2021-11-25 05:00 N/A 39.77 µg/m3 4.18 µg/m3 14.78 °C N/A 1,000.57 mbar 0.48 m/s 198.89 Deg N/A
2021-11-25 04:00 N/A 49.24 µg/m3 4.56 µg/m3 14.64 °C N/A 1,001.41 mbar 0.43 m/s 217.72 Deg N/A
2021-11-25 03:00 N/A 45.37 µg/m3 4.9 µg/m3 14.56 °C N/A 1,002.02 mbar 0.42 m/s 196.63 Deg N/A
2021-11-25 02:00 N/A 41.28 µg/m3 6.6 µg/m3 14.33 °C N/A 1,002.44 mbar 0.45 m/s 242.58 Deg N/A
2021-11-25 01:00 N/A 40.3 µg/m3 8.12 µg/m3 14.3 °C N/A 1,003.03 mbar 0.44 m/s 241.15 Deg N/A
2021-11-25 00:00 N/A 31.65 µg/m3 9.65 µg/m3 14.02 °C N/A 1,003.62 mbar 0.51 m/s 271.92 Deg N/A
2021-11-24 23:00 N/A 26.92 µg/m3 10.69 µg/m3 14.29 °C N/A 1,004.06 mbar 0.38 m/s 275.79 Deg N/A
2021-11-24 22:00 N/A 21.44 µg/m3 11.22 µg/m3 14.34 °C N/A 1,004.34 mbar 0.67 m/s 289.01 Deg N/A
2021-11-24 21:00 N/A 9.85 µg/m3 12.22 µg/m3 14.82 °C N/A 1,004.43 mbar 0.33 m/s 281.27 Deg N/A
2021-11-24 20:00 N/A 7.24 µg/m3 18.57 µg/m3 15.31 °C N/A 1,004.46 mbar 0.5 m/s 285.4 Deg N/A
2021-11-24 19:00 N/A 1.18 µg/m3 15.49 µg/m3 16.04 °C N/A 1,004.27 mbar 0.67 m/s 278.52 Deg N/A
2021-11-24 18:00 N/A 4.85 µg/m3 10.16 µg/m3 17.23 °C N/A 1,004.08 mbar 0.38 m/s 232.66 Deg N/A
2021-11-24 17:00 N/A 28.24 µg/m3 6.28 µg/m3 18.05 °C N/A 1,003.92 mbar 0.53 m/s 212.33 Deg N/A
2021-11-24 16:00 N/A 54.32 µg/m3 5.13 µg/m3 18.57 °C N/A 1,003.92 mbar 0.93 m/s 326.32 Deg N/A
2021-11-24 15:00 N/A 76.03 µg/m3 5.05 µg/m3 19.19 °C N/A 1,003.88 mbar 1.13 m/s 93.66 Deg N/A
2021-11-24 14:00 N/A 79.6 µg/m3 4.73 µg/m3 19.3 °C N/A 1,004.11 mbar 1.23 m/s 20.61 Deg N/A
2021-11-24 13:00 N/A 82.89 µg/m3 4.37 µg/m3 20.43 °C N/A 1,004.35 mbar 0.87 m/s 261.55 Deg N/A
2021-11-24 12:00 N/A 81.59 µg/m3 4.35 µg/m3 20.35 °C N/A 1,004.92 mbar 0.85 m/s 168.28 Deg N/A
2021-11-24 11:00 N/A 78.76 µg/m3 6.98 µg/m3 19.86 °C N/A 1,005.56 mbar 1.01 m/s 96.78 Deg N/A
2021-11-24 10:00 N/A 53.47 µg/m3 22.94 µg/m3 19.25 °C N/A 1,005.89 mbar 0.65 m/s 310.14 Deg N/A
2021-11-24 09:00 N/A 13.51 µg/m3 22.88 µg/m3 16.63 °C N/A 1,005.81 mbar 0.55 m/s 280.82 Deg N/A
2021-11-24 08:00 N/A 1.97 µg/m3 12.45 µg/m3 13.64 °C N/A 1,005.70 mbar 0.61 m/s 278.85 Deg N/A
2021-11-24 07:00 N/A 1.09 µg/m3 6.43 µg/m3 13.21 °C N/A 1,005.41 mbar 0.54 m/s 292.65 Deg N/A
2021-11-24 06:00 N/A 23.85 µg/m3 5.51 µg/m3 13.49 °C N/A 1,005.25 mbar 0.64 m/s 292.28 Deg N/A
2021-11-24 05:00 N/A 27.46 µg/m3 5.49 µg/m3 13.49 °C N/A 1,004.93 mbar 0.69 m/s 297.34 Deg N/A
2021-11-24 04:00 N/A 34.45 µg/m3 6.11 µg/m3 13.63 °C N/A 1,004.94 mbar 0.58 m/s 286.9 Deg N/A
2021-11-24 03:00 N/A 30.87 µg/m3 6.19 µg/m3 13.81 °C N/A 1,005.03 mbar 0.46 m/s 291.27 Deg N/A
2021-11-24 02:00 N/A 29.24 µg/m3 6.53 µg/m3 13.66 °C N/A 1,005.00 mbar 0.58 m/s 284.62 Deg N/A
2021-11-24 01:00 N/A 15.78 µg/m3 5.13 µg/m3 13.97 °C N/A 1,005.02 mbar 0.48 m/s 284.72 Deg N/A
2021-11-24 00:00 N/A 31.19 µg/m3 7.11 µg/m3 14.67 °C N/A 1,005.22 mbar 0.35 m/s 290.96 Deg N/A
2021-11-23 23:00 N/A 55.58 µg/m3 8.51 µg/m3 15.31 °C N/A 1,005.42 mbar 0.46 m/s 298.71 Deg N/A
2021-11-23 22:00 N/A 33.73 µg/m3 7.23 µg/m3 15.1 °C N/A 1,005.12 mbar 0.47 m/s 293.58 Deg N/A
2021-11-23 21:00 N/A 39.55 µg/m3 7.32 µg/m3 15.55 °C N/A 1,004.81 mbar 0.32 m/s 289.21 Deg N/A
2021-11-23 20:00 N/A 52.41 µg/m3 8.97 µg/m3 16 °C N/A 1,004.53 mbar 0.4 m/s 303.26 Deg N/A
2021-11-23 19:00 N/A 34.68 µg/m3 10.93 µg/m3 16.42 °C N/A 1,004.19 mbar 0.34 m/s 308.95 Deg N/A
2021-11-23 18:00 N/A 33.15 µg/m3 7.02 µg/m3 17.22 °C N/A 1,003.59 mbar 0.45 m/s 303.48 Deg N/A
2021-11-23 17:00 N/A 68.07 µg/m3 6 µg/m3 18.75 °C N/A 1,002.93 mbar 0.72 m/s 319.61 Deg N/A
2021-11-23 16:00 N/A 81.45 µg/m3 7.87 µg/m3 20.3 °C N/A 1,002.44 mbar 0.86 m/s 322.29 Deg N/A
2021-11-23 15:00 N/A 74.57 µg/m3 7.23 µg/m3 20.7 °C N/A 1,002.13 mbar 1.08 m/s 317.23 Deg N/A
2021-11-23 14:00 N/A 69.72 µg/m3 7.66 µg/m3 21.22 °C N/A 1,002.08 mbar 1.11 m/s 320.23 Deg N/A
2021-11-23 13:00 N/A 64.06 µg/m3 7.04 µg/m3 21.56 °C N/A 1,002.26 mbar 1.58 m/s 317.77 Deg N/A
2021-11-23 12:00 N/A 64.55 µg/m3 6.43 µg/m3 21.35 °C N/A 1,002.59 mbar 1.74 m/s 302.23 Deg N/A
2021-11-23 11:00 N/A 68.22 µg/m3 6.96 µg/m3 20.97 °C N/A 1,002.73 mbar 2.19 m/s 277.75 Deg N/A
2021-11-23 10:00 N/A 63.9 µg/m3 8.89 µg/m3 20.6 °C N/A 1,002.57 mbar 1.82 m/s 276.28 Deg N/A
2021-11-23 09:00 N/A 39.42 µg/m3 11.69 µg/m3 19.23 °C N/A 1,002.26 mbar 1.29 m/s 261.89 Deg N/A
2021-11-23 08:00 N/A 2.25 µg/m3 9.63 µg/m3 15.84 °C N/A 1,002.20 mbar 0.36 m/s 297.83 Deg N/A
2021-11-23 07:00 N/A 2.94 µg/m3 6.28 µg/m3 15.36 °C N/A 1,001.72 mbar 0.41 m/s 285.2 Deg N/A
2021-11-23 06:00 N/A 18.65 µg/m3 5.09 µg/m3 15.73 °C N/A 1,001.57 mbar 0.3 m/s 313.7 Deg N/A
2021-11-23 05:00 N/A 34.34 µg/m3 4.64 µg/m3 15.93 °C N/A 1,001.51 mbar 0.33 m/s 230.44 Deg N/A
2021-11-23 04:00 N/A 38.78 µg/m3 4.79 µg/m3 15.67 °C N/A 1,001.49 mbar 0.37 m/s 301.9 Deg N/A
2021-11-23 03:00 N/A 32.56 µg/m3 4.18 µg/m3 15.84 °C N/A 1,001.69 mbar 0.28 m/s 231.22 Deg N/A
2021-11-23 02:00 N/A 31.05 µg/m3 6.23 µg/m3 15.52 °C N/A 1,001.93 mbar 0.31 m/s 295.84 Deg N/A
2021-11-23 01:00 N/A 22.31 µg/m3 7.19 µg/m3 15.59 °C N/A 1,001.93 mbar 0.24 m/s 290.05 Deg N/A
2021-11-23 00:00 N/A 26.52 µg/m3 5.79 µg/m3 16.17 °C N/A 1,001.75 mbar 0.32 m/s 209.66 Deg N/A
2021-11-22 23:00 N/A 41.64 µg/m3 5.36 µg/m3 16.68 °C N/A 1,001.62 mbar 0.33 m/s 264.84 Deg N/A
2021-11-22 22:00 N/A 57.81 µg/m3 6.15 µg/m3 16.99 °C N/A 1,001.27 mbar 0.73 m/s 300.68 Deg N/A
2021-11-22 21:00 N/A 51.43 µg/m3 6.6 µg/m3 17.16 °C N/A 1,000.92 mbar 0.73 m/s 284.64 Deg N/A
2021-11-22 20:00 N/A 57.06 µg/m3 6.6 µg/m3 17.79 °C N/A 1,000.66 mbar 0.95 m/s 291.73 Deg N/A
2021-11-22 19:00 N/A 56.43 µg/m3 8.36 µg/m3 18.15 °C N/A 1,000.27 mbar 1.02 m/s 296.6 Deg N/A
2021-11-22 18:00 N/A 29.76 µg/m3 8.31 µg/m3 18.42 °C N/A 999.84 mbar 0.67 m/s 295.48 Deg N/A
2021-11-22 17:00 N/A 59.72 µg/m3 7.21 µg/m3 19.27 °C N/A 999.29 mbar 1.07 m/s 285.89 Deg N/A
2021-11-22 16:00 N/A 64.17 µg/m3 6.15 µg/m3 19.78 °C N/A 998.98 mbar 1.19 m/s 294.76 Deg N/A
2021-11-22 15:00 N/A 70.53 µg/m3 6.53 µg/m3 20.61 °C N/A 998.91 mbar 1.64 m/s 281.93 Deg N/A
2021-11-22 14:00 N/A 68.67 µg/m3 5.47 µg/m3 20.37 °C N/A 999.13 mbar 1.48 m/s 295.83 Deg N/A
2021-11-22 13:00 N/A 74.63 µg/m3 3.26 µg/m3 20.07 °C N/A 999.64 mbar 1.9 m/s 268.56 Deg N/A
2021-11-22 12:00 N/A 76.4 µg/m3 8.08 µg/m3 20.55 °C N/A 1,000.07 mbar 2.18 m/s 289.2 Deg N/A
2021-11-22 11:00 N/A 53.2 µg/m3 14.85 µg/m3 19.87 °C N/A 1,000.76 mbar 1.21 m/s 275.36 Deg N/A
2021-11-22 10:00 N/A 11.28 µg/m3 14.98 µg/m3 17.54 °C N/A 1,001.12 mbar 1.24 m/s 172.15 Deg N/A
2021-11-22 09:00 N/A 11.61 µg/m3 7.91 µg/m3 15.81 °C N/A 1,000.78 mbar 0.64 m/s 219.16 Deg N/A
2021-11-22 08:00 N/A 19.36 µg/m3 6.36 µg/m3 14.7 °C N/A 1,000.33 mbar 0.88 m/s 223.86 Deg N/A
2021-11-22 07:00 N/A 59.95 µg/m3 4.54 µg/m3 15.15 °C N/A 1,000.06 mbar 1.67 m/s 260.85 Deg N/A
2021-11-22 06:00 N/A 59.71 µg/m3 2.2 µg/m3 16.18 °C N/A 999.82 mbar 0.93 m/s 225.45 Deg N/A
2021-11-22 05:00 N/A 51.71 µg/m3 4.32 µg/m3 15.06 °C N/A 999.73 mbar 0.54 m/s 317.47 Deg N/A
2021-11-22 04:00 N/A 66.22 µg/m3 2.1 µg/m3 15.37 °C N/A 999.85 mbar 0.8 m/s 313.29 Deg N/A
2021-11-22 03:00 N/A 54.75 µg/m3 5.45 µg/m3 16.05 °C N/A 1,000.50 mbar 0.7 m/s 276.15 Deg N/A
2021-11-22 02:00 N/A 62 µg/m3 4.37 µg/m3 15.77 °C N/A 1,001.06 mbar 0.48 m/s 258.65 Deg N/A
2021-11-22 01:00 N/A 75.4 µg/m3 5.17 µg/m3 16.46 °C N/A 1,001.56 mbar 1.02 m/s 195.89 Deg N/A
2021-11-22 00:00 N/A 63.98 µg/m3 5.85 µg/m3 17.2 °C N/A 1,002.11 mbar 0.87 m/s 237.89 Deg N/A
2021-11-21 23:00 N/A 52.39 µg/m3 10.1 µg/m3 16.58 °C N/A 1,002.38 mbar 0.37 m/s 241.49 Deg N/A
2021-11-21 22:00 N/A 52.13 µg/m3 8.31 µg/m3 16.78 °C N/A 1,002.40 mbar 0.55 m/s 272.07 Deg N/A
2021-11-21 21:00 N/A 46.07 µg/m3 7.89 µg/m3 16.89 °C N/A 1,002.73 mbar 0.47 m/s 275.16 Deg N/A
2021-11-21 20:00 N/A 45.31 µg/m3 7.15 µg/m3 16.58 °C N/A 1,002.94 mbar 0.49 m/s 282.21 Deg N/A
2021-11-21 19:00 N/A 44.62 µg/m3 7.66 µg/m3 17.02 °C N/A 1,002.62 mbar 0.51 m/s 278.11 Deg N/A
2021-11-21 18:00 N/A 63.04 µg/m3 4.75 µg/m3 17.48 °C N/A 1,002.60 mbar 0.64 m/s 285.81 Deg N/A
2021-11-21 17:00 N/A 73.93 µg/m3 3.62 µg/m3 17.88 °C N/A 1,002.68 mbar 1.21 m/s 296.27 Deg N/A
2021-11-21 16:00 N/A 80.49 µg/m3 5.19 µg/m3 18.78 °C N/A 1,002.84 mbar 1.55 m/s 304.62 Deg N/A
2021-11-21 15:00 N/A 79.16 µg/m3 4.83 µg/m3 19.53 °C N/A 1,002.93 mbar 1.37 m/s 302.1 Deg N/A
2021-11-21 14:00 N/A 78.15 µg/m3 4.98 µg/m3 20.43 °C N/A 1,003.16 mbar 1.5 m/s 306.37 Deg N/A
2021-11-21 13:00 N/A 75.18 µg/m3 5.77 µg/m3 19.47 °C N/A 1,004.05 mbar 1.25 m/s 304.13 Deg N/A
2021-11-21 12:00 N/A 74.56 µg/m3 4.71 µg/m3 19.62 °C N/A 1,004.70 mbar 1.62 m/s 233.44 Deg N/A
2021-11-21 11:00 N/A 77.31 µg/m3 5.56 µg/m3 19.84 °C N/A 1,005.25 mbar 1.63 m/s 229.97 Deg N/A
2021-11-21 10:00 N/A 71.47 µg/m3 11.27 µg/m3 19.56 °C N/A 1,005.55 mbar 1.35 m/s 221.25 Deg N/A
2021-11-21 09:00 N/A 38.65 µg/m3 10.23 µg/m3 18.04 °C N/A 1,005.84 mbar 0.58 m/s 193.69 Deg N/A
2021-11-21 08:00 N/A 17.48 µg/m3 7.95 µg/m3 14.68 °C N/A 1,006.04 mbar 0.79 m/s 279.68 Deg N/A
2021-11-21 07:00 N/A 7.58 µg/m3 6.3 µg/m3 13.25 °C N/A 1,006.06 mbar 0.75 m/s 293.6 Deg N/A
2021-11-21 06:00 N/A 22.37 µg/m3 5.26 µg/m3 13.49 °C N/A 1,006.02 mbar 0.52 m/s 283.4 Deg N/A
2021-11-21 05:00 N/A 44.04 µg/m3 5.62 µg/m3 13.78 °C N/A 1,006.13 mbar 0.68 m/s 292.82 Deg N/A
2021-11-21 04:00 N/A 42.69 µg/m3 7.21 µg/m3 13.66 °C N/A 1,006.30 mbar 0.74 m/s 285.92 Deg N/A
2021-11-21 03:00 N/A 40.58 µg/m3 7.74 µg/m3 13.96 °C N/A 1,006.78 mbar 0.52 m/s 293.48 Deg N/A
2021-11-21 02:00 N/A 40.5 µg/m3 9.23 µg/m3 13.82 °C N/A 1,007.38 mbar 0.66 m/s 290.99 Deg N/A
2021-11-21 01:00 N/A 25.71 µg/m3 9.84 µg/m3 13.53 °C N/A 1,007.97 mbar 0.43 m/s 266.21 Deg N/A
2021-11-21 00:00 N/A 28.9 µg/m3 12.24 µg/m3 13.85 °C N/A 1,008.34 mbar 0.32 m/s 280.04 Deg N/A
2021-11-20 23:00 N/A 26.05 µg/m3 19.39 µg/m3 14.08 °C N/A 1,008.49 mbar 0.53 m/s 283.59 Deg N/A
2021-11-20 22:00 N/A 17.26 µg/m3 16.61 µg/m3 14.23 °C N/A 1,008.55 mbar 0.44 m/s 289.21 Deg N/A
2021-11-20 21:00 N/A 11.7 µg/m3 10.08 µg/m3 14.67 °C N/A 1,008.61 mbar 0.43 m/s 279.55 Deg N/A
2021-11-20 20:00 N/A 21.64 µg/m3 9.97 µg/m3 15.29 °C N/A 1,008.55 mbar 0.27 m/s 293.99 Deg N/A
2021-11-20 19:00 N/A 49.48 µg/m3 9.52 µg/m3 16.01 °C N/A 1,008.60 mbar 0.35 m/s 306.38 Deg N/A
2021-11-20 18:00 N/A 35.32 µg/m3 6.02 µg/m3 16.79 °C N/A 1,008.72 mbar 0.42 m/s 324.05 Deg N/A
2021-11-20 17:00 N/A 71.16 µg/m3 3.43 µg/m3 18.2 °C N/A 1,008.72 mbar 0.9 m/s 173.28 Deg N/A
2021-11-20 16:00 N/A 82.37 µg/m3 3.11 µg/m3 19.02 °C N/A 1,008.70 mbar 1.49 m/s 11.18 Deg N/A
2021-11-20 15:00 N/A 81.41 µg/m3 2.92 µg/m3 19.27 °C N/A 1,008.91 mbar 1.7 m/s 14.72 Deg N/A
2021-11-20 14:00 N/A 82.52 µg/m3 2.84 µg/m3 19.97 °C N/A 1,009.28 mbar 1.44 m/s 7.12 Deg N/A
2021-11-20 13:00 N/A 80.07 µg/m3 3.54 µg/m3 19.99 °C N/A 1,009.88 mbar 1.7 m/s 23.12 Deg N/A
2021-11-20 12:00 N/A 76.46 µg/m3 5.11 µg/m3 19.56 °C N/A 1,010.72 mbar 2.32 m/s 23.35 Deg N/A
2021-11-20 11:00 N/A 69.42 µg/m3 6.51 µg/m3 19.44 °C N/A 1,011.33 mbar 1.58 m/s 94.19 Deg N/A
2021-11-20 10:00 N/A 58.58 µg/m3 10.39 µg/m3 18.76 °C N/A 1,011.50 mbar 1.34 m/s 102.02 Deg N/A
2021-11-20 09:00 N/A 40.6 µg/m3 17.76 µg/m3 18.74 °C N/A 1,011.36 mbar 0.48 m/s 306.57 Deg N/A
2021-11-20 08:00 N/A 4 µg/m3 14.09 µg/m3 15.28 °C N/A 1,011.45 mbar 0.49 m/s 287.59 Deg N/A
2021-11-20 07:00 N/A 1.21 µg/m3 9.38 µg/m3 13.72 °C N/A 1,011.47 mbar 0.56 m/s 293.96 Deg N/A
2021-11-20 06:00 N/A 9.55 µg/m3 9.14 µg/m3 13.91 °C N/A 1,011.24 mbar 0.59 m/s 293.8 Deg N/A
2021-11-20 05:00 N/A 21.22 µg/m3 8.74 µg/m3 14.08 °C N/A 1,011.38 mbar 0.76 m/s 293.57 Deg N/A
2021-11-20 04:00 N/A 30.66 µg/m3 8.4 µg/m3 14.17 °C N/A 1,011.70 mbar 0.65 m/s 293.65 Deg N/A
2021-11-20 03:00 N/A 28.76 µg/m3 9.69 µg/m3 14.12 °C N/A 1,012.13 mbar 0.79 m/s 290.12 Deg N/A
2021-11-20 02:00 N/A 15.69 µg/m3 11.86 µg/m3 14.09 °C N/A 1,012.51 mbar 0.58 m/s 293.68 Deg N/A
2021-11-20 01:00 N/A 10.31 µg/m3 11.35 µg/m3 14.38 °C N/A 1,012.63 mbar 0.42 m/s 290.14 Deg N/A
2021-11-20 00:00 N/A 18.9 µg/m3 10.16 µg/m3 15.02 °C N/A 1,012.87 mbar 0.45 m/s 308.43 Deg N/A
2021-11-19 23:00 N/A 10.65 µg/m3 10.65 µg/m3 15.06 °C N/A 1,012.93 mbar 0.34 m/s 306.18 Deg N/A
2021-11-19 22:00 N/A 8.18 µg/m3 9.89 µg/m3 15.3 °C N/A 1,012.76 mbar 0.47 m/s 290.89 Deg N/A
2021-11-19 21:00 N/A 9.26 µg/m3 7.57 µg/m3 16.18 °C N/A 1,012.43 mbar 0.4 m/s 301.01 Deg N/A
2021-11-19 20:00 N/A 37.6 µg/m3 5.45 µg/m3 17.11 °C N/A 1,012.41 mbar 0.52 m/s 226.35 Deg N/A
2021-11-19 19:00 N/A 54.55 µg/m3 4.13 µg/m3 17.46 °C N/A 1,012.12 mbar 0.93 m/s 277.6 Deg N/A
2021-11-19 18:00 N/A 57.82 µg/m3 4.18 µg/m3 17.67 °C N/A 1,011.74 mbar 1.42 m/s 224.31 Deg N/A
2021-11-19 17:00 N/A 74.06 µg/m3 4.86 µg/m3 18.19 °C N/A 1,011.41 mbar 1.75 m/s 190.02 Deg N/A
2021-11-19 16:00 N/A 78.48 µg/m3 5.81 µg/m3 18.54 °C N/A 1,011.47 mbar 1.72 m/s 285.97 Deg N/A
2021-11-19 15:00 N/A 82.86 µg/m3 4.22 µg/m3 19 °C N/A 1,011.28 mbar 1.88 m/s 317.53 Deg N/A
2021-11-19 14:00 N/A 83.8 µg/m3 4.18 µg/m3 19.06 °C N/A 1,011.25 mbar 1.9 m/s 272.47 Deg N/A
2021-11-19 13:00 N/A 82.51 µg/m3 4.49 µg/m3 18.98 °C N/A 1,011.57 mbar 2.11 m/s 330.3 Deg N/A
2021-11-19 12:00 N/A 79.81 µg/m3 4.03 µg/m3 19.54 °C N/A 1,011.98 mbar 1.63 m/s 329.78 Deg N/A
2021-11-19 11:00 N/A 79.64 µg/m3 5.7 µg/m3 19.23 °C N/A 1,012.37 mbar 1.25 m/s 87.27 Deg N/A
2021-11-19 10:00 N/A 70.6 µg/m3 10.01 µg/m3 19.23 °C N/A 1,012.36 mbar 1.28 m/s 35.13 Deg N/A
2021-11-19 09:00 N/A 30.56 µg/m3 8 µg/m3 18.36 °C N/A 1,012.13 mbar 0.88 m/s 91.65 Deg N/A
2021-11-19 08:00 N/A 12.95 µg/m3 4.81 µg/m3 15.91 °C N/A 1,011.81 mbar 0.29 m/s 327.2 Deg N/A
2021-11-19 07:00 N/A 43.92 µg/m3 3.92 µg/m3 15.17 °C N/A 1,011.33 mbar 0.32 m/s 309.13 Deg N/A
2021-11-19 06:00 N/A 48.36 µg/m3 3.99 µg/m3 15.2 °C N/A 1,011.00 mbar 0.35 m/s 304.07 Deg N/A
2021-11-19 05:00 N/A 49.65 µg/m3 3.52 µg/m3 15.22 °C N/A 1,010.88 mbar 0.49 m/s 293.81 Deg N/A
2021-11-19 04:00 N/A 53.13 µg/m3 4.05 µg/m3 15.43 °C N/A 1,010.86 mbar 0.56 m/s 294.39 Deg N/A
2021-11-19 03:00 N/A 62.47 µg/m3 3.33 µg/m3 15.36 °C N/A 1,011.09 mbar 0.49 m/s 307.66 Deg N/A
2021-11-19 02:00 N/A 56.79 µg/m3 2.69 µg/m3 15.45 °C N/A 1,011.21 mbar 0.41 m/s 301.48 Deg N/A
2021-11-19 01:00 N/A 52.19 µg/m3 3.86 µg/m3 15.6 °C N/A 1,011.29 mbar 0.35 m/s 318.8 Deg N/A
2021-11-19 00:00 N/A 40.78 µg/m3 4.92 µg/m3 15.49 °C N/A 1,011.39 mbar 0.33 m/s 294.2 Deg N/A
2021-11-18 23:00 N/A 38.02 µg/m3 5.51 µg/m3 15.41 °C N/A 1,011.52 mbar 0.26 m/s 301.83 Deg N/A
2021-11-18 22:00 N/A 28.93 µg/m3 5.13 µg/m3 15.61 °C N/A 1,011.52 mbar 0.3 m/s 272.82 Deg N/A
2021-11-18 21:00 N/A 52.94 µg/m3 6.11 µg/m3 16.13 °C N/A 1,011.17 mbar 0.4 m/s 303.35 Deg N/A
2021-11-18 20:00 N/A 43.59 µg/m3 7.32 µg/m3 16.45 °C N/A 1,010.69 mbar 0.46 m/s 300.11 Deg N/A
2021-11-18 19:00 N/A 51.67 µg/m3 9.31 µg/m3 16.94 °C N/A 1,010.38 mbar 0.52 m/s 320.89 Deg N/A
2021-11-18 18:00 N/A 45.81 µg/m3 7.91 µg/m3 17.67 °C N/A 1,009.87 mbar 0.54 m/s 308.29 Deg N/A
2021-11-18 17:00 N/A 54.58 µg/m3 5.47 µg/m3 18.92 °C N/A 1,009.27 mbar 0.65 m/s 318.04 Deg N/A
2021-11-18 16:00 N/A 76.64 µg/m3 4.43 µg/m3 20.2 °C N/A 1,008.92 mbar 0.82 m/s 321.14 Deg N/A
2021-11-18 15:00 N/A 80.62 µg/m3 3.2 µg/m3 20.21 °C N/A 1,008.78 mbar 0.92 m/s 328.41 Deg N/A
2021-11-18 14:00 N/A 82.05 µg/m3 3.41 µg/m3 20.31 °C N/A 1,008.83 mbar 1.11 m/s 325.61 Deg N/A
2021-11-18 13:00 N/A 79.58 µg/m3 5.19 µg/m3 20.42 °C N/A 1,009.08 mbar 1.03 m/s 312.15 Deg N/A
2021-11-18 12:00 N/A 79.12 µg/m3 5.34 µg/m3 20.76 °C N/A 1,009.55 mbar 0.98 m/s 310.65 Deg N/A
2021-11-18 11:00 N/A 78.37 µg/m3 5.28 µg/m3 20.36 °C N/A 1,009.69 mbar 0.95 m/s 309.9 Deg N/A
2021-11-18 10:00 N/A 77.27 µg/m3 13.58 µg/m3 20.08 °C N/A 1,009.33 mbar 0.77 m/s 330.52 Deg N/A
2021-11-18 09:00 N/A 38.46 µg/m3 16.97 µg/m3 19.5 °C N/A 1,008.95 mbar 0.49 m/s 288.23 Deg N/A
2021-11-18 08:00 N/A 4.22 µg/m3 12.98 µg/m3 16.03 °C N/A 1,008.75 mbar 0.49 m/s 290.95 Deg N/A
2021-11-18 07:00 N/A 18.6 µg/m3 5.79 µg/m3 14.57 °C N/A 1,008.21 mbar 0.58 m/s 286.22 Deg N/A
2021-11-18 06:00 N/A 28.63 µg/m3 2.2 µg/m3 14.66 °C N/A 1,007.43 mbar 0.49 m/s 292.73 Deg N/A
2021-11-18 05:00 N/A 54.16 µg/m3 1.97 µg/m3 14.74 °C N/A 1,007.10 mbar 0.6 m/s 286.15 Deg N/A
2021-11-18 04:00 N/A 56.76 µg/m3 2.71 µg/m3 15.12 °C N/A 1,006.93 mbar 0.5 m/s 294.63 Deg N/A
2021-11-18 03:00 N/A 58.73 µg/m3 2.86 µg/m3 15.09 °C N/A 1,006.94 mbar 0.37 m/s 298.48 Deg N/A
2021-11-18 02:00 N/A 45.01 µg/m3 2.97 µg/m3 14.85 °C N/A 1,006.90 mbar 0.34 m/s 288.23 Deg N/A
2021-11-18 01:00 N/A 49.45 µg/m3 4.28 µg/m3 15.22 °C N/A 1,006.73 mbar 0.26 m/s 286.09 Deg N/A
2021-11-18 00:00 N/A 50.48 µg/m3 3.88 µg/m3 15.63 °C N/A 1,006.69 mbar 0.31 m/s 281.06 Deg N/A
2021-11-17 23:00 N/A 63.26 µg/m3 4.3 µg/m3 16.21 °C N/A 1,006.23 mbar 0.4 m/s 296.17 Deg N/A
2021-11-17 22:00 N/A 60.19 µg/m3 5.24 µg/m3 16.65 °C N/A 1,005.81 mbar 0.53 m/s 292.34 Deg N/A
2021-11-17 21:00 N/A 58.11 µg/m3 4.83 µg/m3 17.08 °C N/A 1,005.30 mbar 0.67 m/s 303.8 Deg N/A
2021-11-17 20:00 N/A 64.76 µg/m3 4.94 µg/m3 17.47 °C N/A 1,004.69 mbar 0.56 m/s 312.37 Deg N/A
2021-11-17 19:00 N/A 63.39 µg/m3 5.17 µg/m3 17.77 °C N/A 1,004.07 mbar 0.69 m/s 309.35 Deg N/A
2021-11-17 18:00 N/A 70.31 µg/m3 6.3 µg/m3 18.21 °C N/A 1,003.09 mbar 0.71 m/s 309.53 Deg N/A
2021-11-17 17:00 N/A 72.91 µg/m3 5.07 µg/m3 19.36 °C N/A 1,002.25 mbar 1.02 m/s 309.67 Deg N/A
2021-11-17 16:00 N/A 73.78 µg/m3 4.41 µg/m3 20.27 °C N/A 1,001.87 mbar 1.65 m/s 309.87 Deg N/A
2021-11-17 15:00 N/A 71.25 µg/m3 2.52 µg/m3 20.71 °C N/A 1,001.57 mbar 2.09 m/s 295.98 Deg N/A
2021-11-17 14:00 N/A 74.36 µg/m3 2.99 µg/m3 20.73 °C N/A 1,001.39 mbar 2.5 m/s 279.73 Deg N/A
2021-11-17 13:00 N/A 72.34 µg/m3 6.09 µg/m3 20.67 °C N/A 1,001.51 mbar 3.15 m/s 276.57 Deg N/A
2021-11-17 12:00 N/A 72.57 µg/m3 8.15 µg/m3 20.92 °C N/A 1,001.81 mbar 2.84 m/s 270.52 Deg N/A
2021-11-17 11:00 N/A 73.69 µg/m3 10.44 µg/m3 20.83 °C N/A 1,001.74 mbar 2.46 m/s 273.48 Deg N/A
2021-11-17 10:00 N/A 68.76 µg/m3 9.86 µg/m3 20.9 °C N/A 1,001.10 mbar 2.27 m/s 277.35 Deg N/A
2021-11-17 09:00 N/A 62.73 µg/m3 9.52 µg/m3 20.36 °C N/A 1,000.69 mbar 1.97 m/s 288.35 Deg N/A
2021-11-17 08:00 N/A 51.61 µg/m3 8.46 µg/m3 20.18 °C N/A 1,000.12 mbar 1.3 m/s 272.02 Deg N/A
2021-11-17 07:00 N/A 62.56 µg/m3 7.15 µg/m3 21.15 °C N/A 999.45 mbar 2.68 m/s 235.58 Deg N/A
2021-11-17 06:00 N/A 73.5 µg/m3 6.57 µg/m3 20.84 °C N/A 999.20 mbar 2.78 m/s 204.42 Deg N/A
2021-11-17 05:00 N/A 78.73 µg/m3 5.79 µg/m3 20.76 °C N/A 999.22 mbar 2.83 m/s 188.2 Deg N/A
2021-11-17 04:00 N/A 83.12 µg/m3 5.17 µg/m3 20.56 °C N/A 999.66 mbar 3 m/s 189.23 Deg N/A
2021-11-17 03:00 N/A 85.3 µg/m3 5.11 µg/m3 20.28 °C N/A 1,000.16 mbar 3 m/s 185.68 Deg N/A
2021-11-17 02:00 N/A 86.58 µg/m3 5 µg/m3 19.79 °C N/A 1,000.18 mbar 3.23 m/s 174.93 Deg N/A
2021-11-17 01:00 N/A 90.75 µg/m3 5.34 µg/m3 19.59 °C N/A 1,000.58 mbar 2.78 m/s 172.02 Deg N/A
2021-11-17 00:00 N/A 86.59 µg/m3 6.3 µg/m3 19.6 °C N/A 1,001.16 mbar 3 m/s 170.67 Deg N/A
2021-11-16 23:00 N/A 80.3 µg/m3 7.34 µg/m3 19.4 °C N/A 1,001.45 mbar 1.91 m/s 182.7 Deg N/A
2021-11-16 22:00 N/A 62.34 µg/m3 9.57 µg/m3 19 °C N/A 1,001.52 mbar 1.3 m/s 202.72 Deg N/A
2021-11-16 21:00 N/A 33.28 µg/m3 8.76 µg/m3 18.9 °C N/A 1,001.20 mbar 0.78 m/s 199.35 Deg N/A
2021-11-16 20:00 N/A 55.57 µg/m3 9.23 µg/m3 19.49 °C N/A 1,000.86 mbar 0.9 m/s 166.5 Deg N/A
2021-11-16 19:00 N/A 45.92 µg/m3 8.65 µg/m3 19.75 °C N/A 1,000.74 mbar 1.34 m/s 197.38 Deg N/A
2021-11-16 18:00 N/A 58.08 µg/m3 10.33 µg/m3 20.3 °C N/A 1,000.88 mbar 1.34 m/s 220.47 Deg N/A
2021-11-16 17:00 N/A 67.14 µg/m3 8.31 µg/m3 21.22 °C N/A 1,000.92 mbar 1.78 m/s 218.07 Deg N/A
2021-11-16 16:00 N/A 70.23 µg/m3 7.49 µg/m3 21.74 °C N/A 1,001.15 mbar 2.29 m/s 218.9 Deg N/A
2021-11-16 15:00 N/A 73.9 µg/m3 8.21 µg/m3 22.08 °C N/A 1,000.96 mbar 3 m/s 206.25 Deg N/A
2021-11-16 14:00 N/A 71.07 µg/m3 8.25 µg/m3 22.47 °C N/A 1,000.80 mbar 3.04 m/s 204.05 Deg N/A
2021-11-16 13:00 N/A 75.19 µg/m3 8.06 µg/m3 22.69 °C N/A 1,001.11 mbar 2.95 m/s 200.05 Deg N/A
2021-11-16 12:00 N/A 85.08 µg/m3 6.55 µg/m3 22.27 °C N/A 1,001.60 mbar 3.69 m/s 194.22 Deg N/A
2021-11-16 11:00 N/A 79.41 µg/m3 9.38 µg/m3 21.67 °C N/A 1,002.02 mbar 3.65 m/s 193.77 Deg N/A
2021-11-16 10:00 N/A 70.77 µg/m3 12.45 µg/m3 21.18 °C N/A 1,002.23 mbar 3.25 m/s 187.67 Deg N/A
2021-11-16 09:00 N/A 43.9 µg/m3 14.77 µg/m3 20.07 °C N/A 1,002.09 mbar 2.72 m/s 184.15 Deg N/A
2021-11-16 08:00 N/A 20.2 µg/m3 11.44 µg/m3 18.35 °C N/A 1,001.75 mbar 1.77 m/s 175.47 Deg N/A
2021-11-16 07:00 N/A 16.29 µg/m3 6.83 µg/m3 16.72 °C N/A 1,001.28 mbar 1.38 m/s 184.12 Deg N/A
2021-11-16 06:00 N/A 28.24 µg/m3 4.32 µg/m3 15.55 °C N/A 1,001.10 mbar 0.46 m/s 208.42 Deg N/A
2021-11-16 05:00 N/A 35.65 µg/m3 2.97 µg/m3 15.07 °C N/A 1,001.12 mbar 0.34 m/s 237.41 Deg N/A
2021-11-16 04:00 N/A 36.69 µg/m3 3.69 µg/m3 14.84 °C N/A 1,001.20 mbar 0.33 m/s 276.84 Deg N/A
2021-11-16 03:00 N/A 49.29 µg/m3 3.39 µg/m3 14.97 °C N/A 1,001.39 mbar 0.34 m/s 303.78 Deg N/A
2021-11-16 02:00 N/A 47.31 µg/m3 4.13 µg/m3 14.95 °C N/A 1,001.59 mbar 0.35 m/s 283.56 Deg N/A
2021-11-16 01:00 N/A 41.38 µg/m3 4.13 µg/m3 14.98 °C N/A 1,001.84 mbar 0.62 m/s 282.83 Deg N/A
2021-11-16 00:00 N/A 36.62 µg/m3 7.02 µg/m3 15.22 °C N/A 1,002.17 mbar 0.47 m/s 267.98 Deg N/A
2021-11-15 23:00 N/A 24.62 µg/m3 9.99 µg/m3 15.4 °C N/A 1,002.14 mbar 0.62 m/s 288.9 Deg N/A
2021-11-15 22:00 N/A 4.89 µg/m3 13.13 µg/m3 16.01 °C N/A 1,001.91 mbar 0.46 m/s 312.35 Deg N/A
2021-11-15 21:00 N/A 1.59 µg/m3 12.24 µg/m3 16.49 °C N/A 1,001.45 mbar 0.38 m/s 283.67 Deg N/A
2021-11-15 20:00 N/A 4.09 µg/m3 10.2 µg/m3 17.15 °C N/A 1,001.25 mbar 0.4 m/s 247.46 Deg N/A
2021-11-15 19:00 N/A 16.6 µg/m3 7.93 µg/m3 17.55 °C N/A 1,001.00 mbar 0.83 m/s 221.48 Deg N/A
2021-11-15 18:00 N/A 32.67 µg/m3 8.61 µg/m3 18.07 °C N/A 1,000.73 mbar 1.07 m/s 191.48 Deg N/A
2021-11-15 17:00 N/A 45.05 µg/m3 6.55 µg/m3 19.08 °C N/A 1,000.56 mbar 2.09 m/s 166.87 Deg N/A
2021-11-15 16:00 N/A 60.79 µg/m3 5.34 µg/m3 20.2 °C N/A 1,000.27 mbar 2.26 m/s 178.9 Deg N/A
2021-11-15 15:00 N/A 67.61 µg/m3 5.34 µg/m3 20.77 °C N/A 1,000.33 mbar 1.55 m/s 197.07 Deg N/A
2021-11-15 14:00 N/A 62.34 µg/m3 5.07 µg/m3 20.12 °C N/A 1,000.57 mbar 2.19 m/s 161.7 Deg N/A
2021-11-15 13:00 N/A 56.87 µg/m3 7.57 µg/m3 20.19 °C N/A 1,000.93 mbar 2.08 m/s 165.88 Deg N/A
2021-11-15 12:00 N/A 51.9 µg/m3 5.51 µg/m3 19.79 °C N/A 1,001.47 mbar 1.39 m/s 176.43 Deg N/A
2021-11-15 11:00 N/A 59.67 µg/m3 12.31 µg/m3 20.05 °C N/A 1,001.84 mbar 1.63 m/s 149.63 Deg N/A
2021-11-15 10:00 N/A 20.56 µg/m3 22.34 µg/m3 19.23 °C N/A 1,001.88 mbar 1.22 m/s 150.9 Deg N/A
2021-11-15 09:00 N/A 3.47 µg/m3 21.2 µg/m3 18.02 °C N/A 1,001.81 mbar 0.7 m/s 219.45 Deg N/A
2021-11-15 08:00 N/A 2.24 µg/m3 9.29 µg/m3 16.28 °C N/A 1,001.38 mbar 0.36 m/s 260.29 Deg N/A
2021-11-15 07:00 N/A 7.27 µg/m3 4.32 µg/m3 15.24 °C N/A 1,001.14 mbar 0.5 m/s 319.13 Deg N/A
2021-11-15 06:00 N/A 9.12 µg/m3 3.67 µg/m3 15.02 °C N/A 1,001.07 mbar 0.65 m/s 280.41 Deg N/A
2021-11-15 05:00 N/A 19.26 µg/m3 2.71 µg/m3 15.96 °C N/A 1,000.90 mbar 0.29 m/s 247.82 Deg N/A
2021-11-15 04:00 N/A 35.64 µg/m3 3.05 µg/m3 16.29 °C N/A 1,001.16 mbar 0.44 m/s 282.37 Deg N/A
2021-11-15 03:00 N/A 40.79 µg/m3 3.96 µg/m3 16.22 °C N/A 1,001.73 mbar 0.85 m/s 241.42 Deg N/A
2021-11-15 02:00 N/A 52.39 µg/m3 6.74 µg/m3 15.79 °C N/A 1,001.88 mbar 0.67 m/s 279.41 Deg N/A
2021-11-15 01:00 N/A 30.92 µg/m3 9.25 µg/m3 16.26 °C N/A 1,002.27 mbar 0.59 m/s 287.02 Deg N/A
2021-11-15 00:00 N/A 20.3 µg/m3 13.68 µg/m3 16.04 °C N/A 1,002.37 mbar 0.45 m/s 241.77 Deg N/A
2021-11-14 23:00 N/A 5.55 µg/m3 8.99 µg/m3 15.28 °C N/A 1,002.51 mbar 0.41 m/s 266.7 Deg N/A
2021-11-14 22:00 N/A 11.61 µg/m3 7.83 µg/m3 15.86 °C N/A 1,002.43 mbar 0.44 m/s 234.99 Deg N/A
2021-11-14 21:00 N/A 27.45 µg/m3 9.25 µg/m3 16.07 °C N/A 1,002.26 mbar 0.42 m/s 287.87 Deg N/A
2021-11-14 20:00 N/A 18.42 µg/m3 11.41 µg/m3 16.26 °C N/A 1,002.25 mbar 0.63 m/s 277.21 Deg N/A
2021-11-14 19:00 N/A 9.1 µg/m3 8.31 µg/m3 17.07 °C N/A 1,002.02 mbar 0.65 m/s 296.3 Deg N/A
2021-11-14 18:00 N/A 31.34 µg/m3 5.81 µg/m3 18.1 °C N/A 1,001.54 mbar 0.55 m/s 231.85 Deg N/A
2021-11-14 17:00 N/A 58.11 µg/m3 5.39 µg/m3 18.61 °C N/A 1,001.04 mbar 0.89 m/s 197.2 Deg N/A
2021-11-14 16:00 N/A 64.21 µg/m3 4.49 µg/m3 18.95 °C N/A 1,000.75 mbar 1.81 m/s 167.38 Deg N/A
2021-11-14 15:00 N/A 68.36 µg/m3 4.45 µg/m3 19.1 °C N/A 1,001.29 mbar 2.54 m/s 170.72 Deg N/A
2021-11-14 14:00 N/A 75.83 µg/m3 5.05 µg/m3 19.71 °C N/A 1,001.52 mbar 2.85 m/s 162.67 Deg N/A
2021-11-14 13:00 N/A 85.63 µg/m3 3.88 µg/m3 20.16 °C N/A 1,001.97 mbar 2.89 m/s 165.7 Deg N/A
2021-11-14 12:00 N/A 85.01 µg/m3 4.64 µg/m3 20.47 °C N/A 1,002.74 mbar 2.71 m/s 149.5 Deg N/A
2021-11-14 11:00 N/A 83.1 µg/m3 8.68 µg/m3 20.2 °C N/A 1,003.44 mbar 2.8 m/s 144.57 Deg N/A
2021-11-14 10:00 N/A 51.26 µg/m3 11.67 µg/m3 19.91 °C N/A 1,003.35 mbar 2.41 m/s 140.58 Deg N/A
2021-11-14 09:00 N/A 27.91 µg/m3 7.93 µg/m3 18.88 °C N/A 1,003.48 mbar 0.75 m/s 173.34 Deg N/A
2021-11-14 08:00 N/A 14.88 µg/m3 7.51 µg/m3 15.17 °C N/A 1,003.57 mbar 0.31 m/s 271.87 Deg N/A
2021-11-14 07:00 N/A 6.09 µg/m3 5.94 µg/m3 13.75 °C N/A 1,003.51 mbar 0.42 m/s 291.91 Deg N/A
2021-11-14 06:00 N/A 14.58 µg/m3 4.47 µg/m3 13.77 °C N/A 1,003.64 mbar 0.48 m/s 291.88 Deg N/A
2021-11-14 05:00 N/A 24.99 µg/m3 5.03 µg/m3 14.31 °C N/A 1,003.72 mbar 0.43 m/s 298.23 Deg N/A
2021-11-14 04:00 N/A 35.28 µg/m3 5.24 µg/m3 14.61 °C N/A 1,004.02 mbar 0.36 m/s 312.33 Deg N/A
2021-11-14 03:00 N/A 41.1 µg/m3 5.92 µg/m3 14.53 °C N/A 1,004.49 mbar 0.54 m/s 287.02 Deg N/A
2021-11-14 02:00 N/A 28.58 µg/m3 8.06 µg/m3 14.63 °C N/A 1,004.64 mbar 0.5 m/s 290.12 Deg N/A
2021-11-14 01:00 N/A 22.11 µg/m3 13.41 µg/m3 14.53 °C N/A 1,004.82 mbar 0.56 m/s 289.51 Deg N/A
2021-11-14 00:00 N/A 17.74 µg/m3 24.59 µg/m3 14.7 °C N/A 1,005.24 mbar 0.43 m/s 293.34 Deg N/A
2021-11-13 23:00 N/A 12.89 µg/m3 17.61 µg/m3 15.28 °C N/A 1,005.35 mbar 0.34 m/s 294.21 Deg N/A
2021-11-13 22:00 N/A 8.45 µg/m3 15.68 µg/m3 15.34 °C N/A 1,005.31 mbar 0.56 m/s 289.6 Deg N/A
2021-11-13 21:00 N/A 5.16 µg/m3 15.98 µg/m3 15.91 °C N/A 1,005.40 mbar 0.35 m/s 295.16 Deg N/A
2021-11-13 20:00 N/A 2.2 µg/m3 15.09 µg/m3 16.56 °C N/A 1,005.46 mbar 0.4 m/s 298.78 Deg N/A
2021-11-13 19:00 N/A 2.35 µg/m3 11.56 µg/m3 17.09 °C N/A 1,005.31 mbar 0.61 m/s 285.39 Deg N/A
2021-11-13 18:00 N/A 10.95 µg/m3 8 µg/m3 18.35 °C N/A 1,005.15 mbar 0.55 m/s 288.4 Deg N/A
2021-11-13 17:00 N/A 56.89 µg/m3 4.37 µg/m3 19.65 °C N/A 1,004.85 mbar 0.31 m/s 302.15 Deg N/A
2021-11-13 16:00 N/A 77.9 µg/m3 3.5 µg/m3 20.13 °C N/A 1,004.90 mbar 0.49 m/s 258.64 Deg N/A
2021-11-13 15:00 N/A 80.81 µg/m3 3.14 µg/m3 20.26 °C N/A 1,004.98 mbar 0.87 m/s 246.23 Deg N/A
2021-11-13 14:00 N/A 85.16 µg/m3 3.2 µg/m3 20.51 °C N/A 1,005.24 mbar 1.12 m/s 274.23 Deg N/A
2021-11-13 13:00 N/A 87.4 µg/m3 4.54 µg/m3 21.32 °C N/A 1,005.48 mbar 0.98 m/s 309.33 Deg N/A
2021-11-13 12:00 N/A 85.17 µg/m3 4.64 µg/m3 21.1 °C N/A 1,005.95 mbar 0.84 m/s 264.33 Deg N/A
2021-11-13 11:00 N/A 81.36 µg/m3 18.23 µg/m3 21.42 °C N/A 1,006.63 mbar 0.69 m/s 311.1 Deg N/A
2021-11-13 10:00 N/A 31.69 µg/m3 26.67 µg/m3 21.12 °C N/A 1,006.68 mbar 0.46 m/s 220.83 Deg N/A
2021-11-13 09:00 N/A 6.81 µg/m3 21.86 µg/m3 18.55 °C N/A 1,006.60 mbar 0.49 m/s 212.02 Deg N/A
2021-11-13 08:00 N/A 3.18 µg/m3 14.15 µg/m3 15.28 °C N/A 1,006.30 mbar 0.55 m/s 290.2 Deg N/A
2021-11-13 07:00 N/A 2.09 µg/m3 9.14 µg/m3 13.85 °C N/A 1,006.22 mbar 0.55 m/s 290.82 Deg N/A
2021-11-13 06:00 N/A 9.21 µg/m3 5.62 µg/m3 13.53 °C N/A 1,006.01 mbar 0.76 m/s 295.71 Deg N/A
2021-11-13 05:00 N/A 33.26 µg/m3 5.43 µg/m3 13.57 °C N/A 1,005.91 mbar 0.73 m/s 292.6 Deg N/A
2021-11-13 04:00 N/A 30.32 µg/m3 6.09 µg/m3 13.78 °C N/A 1,005.88 mbar 0.53 m/s 295.81 Deg N/A
2021-11-13 03:00 N/A 24.41 µg/m3 5.98 µg/m3 13.91 °C N/A 1,005.97 mbar 0.6 m/s 289.35 Deg N/A
2021-11-13 02:00 N/A 17.71 µg/m3 6.66 µg/m3 14.13 °C N/A 1,006.11 mbar 0.5 m/s 293.88 Deg N/A
2021-11-13 01:00 N/A 20 µg/m3 8.06 µg/m3 14.1 °C N/A 1,006.14 mbar 0.51 m/s 286.12 Deg N/A
2021-11-13 00:00 N/A 30.84 µg/m3 7.49 µg/m3 14.57 °C N/A 1,006.21 mbar 0.64 m/s 292.07 Deg N/A
2021-11-12 23:00 N/A 21.35 µg/m3 9.08 µg/m3 14.74 °C N/A 1,006.27 mbar 0.64 m/s 294.93 Deg N/A
2021-11-12 22:00 N/A 9.41 µg/m3 11.56 µg/m3 15.06 °C N/A 1,006.38 mbar 0.54 m/s 288.69 Deg N/A
2021-11-12 21:00 N/A 2.4 µg/m3 11.8 µg/m3 15.23 °C N/A 1,006.18 mbar 0.5 m/s 285.82 Deg N/A
2021-11-12 20:00 N/A 1.5 µg/m3 15.3 µg/m3 15.76 °C N/A 1,006.05 mbar 0.49 m/s 287.12 Deg N/A
2021-11-12 19:00 N/A 1.34 µg/m3 10.97 µg/m3 16.69 °C N/A 1,005.96 mbar 0.49 m/s 286.99 Deg N/A
2021-11-12 18:00 N/A 26.38 µg/m3 5.11 µg/m3 18.18 °C N/A 1,005.49 mbar 0.43 m/s 313.74 Deg N/A
2021-11-12 17:00 N/A 78.57 µg/m3 2.63 µg/m3 19.51 °C N/A 1,004.94 mbar 0.88 m/s 7.49 Deg N/A
2021-11-12 16:00 N/A 89.2 µg/m3 3.96 µg/m3 20.4 °C N/A 1,004.47 mbar 1.21 m/s 20.27 Deg N/A
2021-11-12 15:00 N/A 94.39 µg/m3 3.84 µg/m3 21.27 °C N/A 1,004.34 mbar 1.13 m/s 180.95 Deg N/A
2021-11-12 14:00 N/A 92.79 µg/m3 2.71 µg/m3 21.79 °C N/A 1,004.41 mbar 0.8 m/s 310.65 Deg N/A
2021-11-12 13:00 N/A 89.86 µg/m3 4.01 µg/m3 21.38 °C N/A 1,004.70 mbar 1.11 m/s 313.56 Deg N/A
2021-11-12 12:00 N/A 88.54 µg/m3 3.39 µg/m3 21 °C N/A 1,005.27 mbar 1.46 m/s 279.63 Deg N/A
2021-11-12 11:00 N/A 84.2 µg/m3 7.34 µg/m3 20.93 °C N/A 1,005.77 mbar 1.04 m/s 275.93 Deg N/A
2021-11-12 10:00 N/A 71.17 µg/m3 18.08 µg/m3 20.7 °C N/A 1,005.89 mbar 0.63 m/s 246.43 Deg N/A
2021-11-12 09:00 N/A 20.34 µg/m3 24.62 µg/m3 18.94 °C N/A 1,005.98 mbar 0.6 m/s 250.24 Deg N/A
2021-11-12 08:00 N/A 3.8 µg/m3 14.87 µg/m3 15.53 °C N/A 1,005.95 mbar 0.47 m/s 284.43 Deg N/A
2021-11-12 07:00 N/A 2.73 µg/m3 5.51 µg/m3 13.01 °C N/A 1,005.80 mbar 0.67 m/s 291.15 Deg N/A
2021-11-12 06:00 N/A 32.75 µg/m3 3.6 µg/m3 13.16 °C N/A 1,005.56 mbar 0.51 m/s 291.24 Deg N/A
2021-11-12 05:00 N/A 47.61 µg/m3 3.73 µg/m3 13.85 °C N/A 1,005.50 mbar 0.82 m/s 290.58 Deg N/A
2021-11-12 04:00 N/A 39.06 µg/m3 2.88 µg/m3 13.82 °C N/A 1,005.62 mbar 0.66 m/s 291.32 Deg N/A
2021-11-12 03:00 N/A 42.35 µg/m3 2.78 µg/m3 14.42 °C N/A 1,005.91 mbar 0.43 m/s 302.83 Deg N/A
2021-11-12 02:00 N/A 50.46 µg/m3 3.67 µg/m3 14.77 °C N/A 1,005.93 mbar 0.47 m/s 289.96 Deg N/A
2021-11-12 01:00 N/A 51.67 µg/m3 5.92 µg/m3 15.29 °C N/A 1,006.05 mbar 0.49 m/s 293.69 Deg N/A
2021-11-12 00:00 N/A 54.55 µg/m3 5.62 µg/m3 15.42 °C N/A 1,006.21 mbar 0.53 m/s 293.45 Deg N/A
2021-11-11 23:00 N/A 56 µg/m3 7.85 µg/m3 15.81 °C N/A 1,006.57 mbar 0.31 m/s 300.4 Deg N/A
2021-11-11 22:00 N/A 44.5 µg/m3 8.25 µg/m3 16.26 °C N/A 1,006.75 mbar 0.47 m/s 290.52 Deg N/A
2021-11-11 21:00 N/A 49.99 µg/m3 7.47 µg/m3 16.77 °C N/A 1,006.43 mbar 0.48 m/s 305.13 Deg N/A
2021-11-11 20:00 N/A 43.39 µg/m3 5.6 µg/m3 17.05 °C N/A 1,006.25 mbar 0.68 m/s 304.85 Deg N/A
2021-11-11 19:00 N/A 36.08 µg/m3 6.19 µg/m3 17.32 °C N/A 1,006.25 mbar 0.54 m/s 309.61 Deg N/A
2021-11-11 18:00 N/A 49.56 µg/m3 6.7 µg/m3 18.07 °C N/A 1,005.68 mbar 0.7 m/s 299.31 Deg N/A
2021-11-11 17:00 N/A 67.45 µg/m3 6.43 µg/m3 19.78 °C N/A 1,005.17 mbar 0.61 m/s 315.29 Deg N/A
2021-11-11 16:00 N/A 77.74 µg/m3 5.56 µg/m3 20.91 °C N/A 1,005.21 mbar 0.88 m/s 330.52 Deg N/A
2021-11-11 15:00 N/A 78.25 µg/m3 4.66 µg/m3 20.96 °C N/A 1,005.14 mbar 0.95 m/s 326.82 Deg N/A
2021-11-11 14:00 N/A 74.17 µg/m3 3.11 µg/m3 20.69 °C N/A 1,005.42 mbar 0.98 m/s 322.42 Deg N/A
2021-11-11 13:00 N/A 72.48 µg/m3 5.98 µg/m3 20.53 °C N/A 1,005.69 mbar 1.12 m/s 170.7 Deg N/A
2021-11-11 12:00 N/A 65.47 µg/m3 6.57 µg/m3 19.36 °C N/A 1,005.85 mbar 0.88 m/s 264.44 Deg N/A
2021-11-11 11:00 N/A 56.73 µg/m3 6.28 µg/m3 17.84 °C N/A 1,006.17 mbar 0.89 m/s 254.06 Deg N/A
2021-11-11 10:00 N/A 61.11 µg/m3 7.57 µg/m3 17.35 °C N/A 1,005.89 mbar 1.1 m/s 342.01 Deg N/A
2021-11-11 09:00 N/A 56.82 µg/m3 8.15 µg/m3 18.21 °C N/A 1,005.58 mbar 1.44 m/s 205.92 Deg N/A
2021-11-11 08:00 N/A 56.48 µg/m3 4.18 µg/m3 19.33 °C N/A 1,004.86 mbar 2.44 m/s 210.63 Deg N/A
2021-11-11 07:00 N/A 68.29 µg/m3 13.09 µg/m3 19.4 °C N/A 1,004.69 mbar 4.34 m/s 179.78 Deg N/A
2021-11-11 06:00 N/A 68.44 µg/m3 15.43 µg/m3 20.21 °C N/A 1,004.15 mbar 4.47 m/s 144.68 Deg N/A
2021-11-11 05:00 N/A 72.06 µg/m3 12.39 µg/m3 20.13 °C N/A 1,004.65 mbar 3.42 m/s 154.02 Deg N/A
2021-11-11 04:00 N/A 74.37 µg/m3 9.65 µg/m3 19.99 °C N/A 1,005.12 mbar 3.44 m/s 157.83 Deg N/A
2021-11-11 03:00 N/A 74.64 µg/m3 14.51 µg/m3 19.86 °C N/A 1,005.51 mbar 3.76 m/s 152.17 Deg N/A
2021-11-11 02:00 N/A 74.05 µg/m3 17.17 µg/m3 19.88 °C N/A 1,005.94 mbar 4.12 m/s 161.72 Deg N/A
2021-11-11 01:00 N/A 71.59 µg/m3 17.19 µg/m3 20.27 °C N/A 1,006.17 mbar 3.37 m/s 157.67 Deg N/A
2021-11-11 00:00 N/A 76.19 µg/m3 20.29 µg/m3 20.49 °C N/A 1,006.31 mbar 3.47 m/s 146.7 Deg N/A
2021-11-10 23:00 N/A 77.88 µg/m3 18.16 µg/m3 20.77 °C N/A 1,006.40 mbar 3.86 m/s 151.8 Deg N/A
2021-11-10 22:00 N/A 80.31 µg/m3 14.75 µg/m3 20.96 °C N/A 1,006.41 mbar 4.15 m/s 153.88 Deg N/A
2021-11-10 21:00 N/A 79.03 µg/m3 17.14 µg/m3 21.04 °C N/A 1,006.61 mbar 3.75 m/s 148.28 Deg N/A
2021-11-10 20:00 N/A 79.6 µg/m3 16.87 µg/m3 21.1 °C N/A 1,005.94 mbar 4.22 m/s 153.12 Deg N/A
2021-11-10 19:00 N/A 78.1 µg/m3 16.87 µg/m3 21.3 °C N/A 1,005.97 mbar 4.36 m/s 160.7 Deg N/A
2021-11-10 18:00 N/A 71.35 µg/m3 18.42 µg/m3 21.4 °C N/A 1,005.97 mbar 4.22 m/s 155.08 Deg N/A
2021-11-10 17:00 N/A 59.8 µg/m3 14.17 µg/m3 21.46 °C N/A 1,005.84 mbar 3.85 m/s 153.53 Deg N/A
2021-11-10 16:00 N/A 57.15 µg/m3 10.63 µg/m3 21.45 °C N/A 1,005.57 mbar 3.91 m/s 153.03 Deg N/A
2021-11-10 15:00 N/A 54.27 µg/m3 10.1 µg/m3 21.28 °C N/A 1,005.08 mbar 3.76 m/s 142.82 Deg N/A
2021-11-10 14:00 N/A 55.11 µg/m3 12.75 µg/m3 21.43 °C N/A 1,005.17 mbar 3.8 m/s 145.7 Deg N/A
2021-11-10 13:00 N/A 58.19 µg/m3 18.14 µg/m3 21.94 °C N/A 1,006.14 mbar 3.07 m/s 152.55 Deg N/A
2021-11-10 12:00 N/A 61.62 µg/m3 16.53 µg/m3 21.66 °C N/A 1,006.83 mbar 3.45 m/s 140.07 Deg N/A
2021-11-10 11:00 N/A 56.45 µg/m3 14.66 µg/m3 22.18 °C N/A 1,007.22 mbar 3.49 m/s 151.63 Deg N/A
2021-11-10 10:00 N/A 54.76 µg/m3 11.71 µg/m3 21.8 °C N/A 1,007.18 mbar 2.93 m/s 154.22 Deg N/A
2021-11-10 09:00 N/A 38.65 µg/m3 8.02 µg/m3 20.23 °C N/A 1,007.20 mbar 2.06 m/s 158.68 Deg N/A
2021-11-10 08:00 N/A 35.88 µg/m3 5.05 µg/m3 19.03 °C N/A 1,006.89 mbar 1.4 m/s 186.62 Deg N/A
2021-11-10 07:00 N/A 63.86 µg/m3 2.33 µg/m3 18.47 °C N/A 1,006.27 mbar 1.44 m/s 234.4 Deg N/A
2021-11-10 06:00 N/A 74.62 µg/m3 3.75 µg/m3 18.29 °C N/A 1,006.37 mbar 1.17 m/s 231.35 Deg N/A
2021-11-10 05:00 N/A 73.79 µg/m3 3.37 µg/m3 17.9 °C N/A 1,006.44 mbar 1.41 m/s 97.88 Deg N/A
2021-11-10 04:00 N/A 72.91 µg/m3 2.12 µg/m3 17.73 °C N/A 1,006.41 mbar 1.25 m/s 346.67 Deg N/A
2021-11-10 03:00 N/A 78.15 µg/m3 4.37 µg/m3 17.42 °C N/A 1,006.42 mbar 1.16 m/s 335.74 Deg N/A
2021-11-10 02:00 N/A 77.67 µg/m3 6.62 µg/m3 17.38 °C N/A 1,006.54 mbar 1.04 m/s 317.59 Deg N/A
2021-11-10 01:00 N/A 77.33 µg/m3 11.6 µg/m3 18.63 °C N/A 1,006.67 mbar 2.7 m/s 271.48 Deg N/A
2021-11-10 00:00 N/A 68 µg/m3 11.65 µg/m3 20.72 °C N/A 1,005.14 mbar 4.11 m/s 164.53 Deg N/A
2021-11-09 23:00 N/A 66.08 µg/m3 11.03 µg/m3 20.53 °C N/A 1,004.13 mbar 3.58 m/s 141.4 Deg N/A
2021-11-09 22:00 N/A 61.96 µg/m3 9.91 µg/m3 20.44 °C N/A 1,003.54 mbar 4.31 m/s 145 Deg N/A
2021-11-09 21:00 N/A 56.14 µg/m3 4.2 µg/m3 20.55 °C N/A 1,003.25 mbar 3.99 m/s 146.9 Deg N/A
2021-11-09 20:00 N/A 49.62 µg/m3 3.69 µg/m3 19.24 °C N/A 1,003.91 mbar 1.66 m/s 324.85 Deg N/A
2021-11-09 19:00 N/A 51.73 µg/m3 2.97 µg/m3 18.98 °C N/A 1,004.64 mbar 1.77 m/s 25 Deg N/A
2021-11-09 18:00 N/A 45.95 µg/m3 3.86 µg/m3 18.01 °C N/A 1,005.55 mbar 1.33 m/s 179.15 Deg N/A
2021-11-09 17:00 N/A 49.19 µg/m3 5.68 µg/m3 17.72 °C N/A 1,005.35 mbar 1.45 m/s 175.4 Deg N/A
2021-11-09 16:00 N/A 57.74 µg/m3 7.81 µg/m3 17.92 °C N/A 1,004.61 mbar 1.65 m/s 166.15 Deg N/A
2021-11-09 15:00 N/A 52.91 µg/m3 13.26 µg/m3 20.55 °C N/A 1,003.87 mbar 1.86 m/s 259.16 Deg N/A
2021-11-09 14:00 N/A 44.7 µg/m3 15.15 µg/m3 22.75 °C N/A 1,003.64 mbar 2.01 m/s 181.44 Deg N/A
2021-11-09 13:00 N/A 45.42 µg/m3 13.52 µg/m3 22.84 °C N/A 1,003.05 mbar 2.82 m/s 167.53 Deg N/A
2021-11-09 12:00 N/A 36.99 µg/m3 14.22 µg/m3 22.5 °C N/A 1,003.22 mbar 2.17 m/s 156.42 Deg N/A
2021-11-09 11:00 N/A 39.16 µg/m3 13.81 µg/m3 22.44 °C N/A 1,003.23 mbar 2.55 m/s 172.05 Deg N/A
2021-11-09 10:00 N/A 25.42 µg/m3 19.08 µg/m3 21.97 °C N/A 1,002.87 mbar 2.42 m/s 167.12 Deg N/A
2021-11-09 09:00 N/A 2.54 µg/m3 19.08 µg/m3 21.22 °C N/A 1,002.57 mbar 0.63 m/s 208.12 Deg N/A
2021-11-09 08:00 N/A 1.8 µg/m3 15.28 µg/m3 20.35 °C N/A 1,001.81 mbar 0.67 m/s 150.36 Deg N/A
2021-11-09 07:00 N/A 2.81 µg/m3 12.31 µg/m3 20.02 °C N/A 1,001.15 mbar 0.34 m/s 232.52 Deg N/A
2021-11-09 06:00 N/A 21.22 µg/m3 10.39 µg/m3 20.07 °C N/A 1,000.58 mbar 0.51 m/s 264.03 Deg N/A
2021-11-09 05:00 N/A 21.45 µg/m3 8.7 µg/m3 19.99 °C N/A 1,000.01 mbar 0.55 m/s 310.64 Deg N/A
2021-11-09 04:00 N/A 24.9 µg/m3 7.25 µg/m3 20.01 °C N/A 1,000.05 mbar 0.25 m/s 214.94 Deg N/A
2021-11-09 03:00 N/A 32.31 µg/m3 7.17 µg/m3 20.05 °C N/A 1,000.25 mbar 0.37 m/s 282.62 Deg N/A
2021-11-09 02:00 N/A 47.58 µg/m3 8.91 µg/m3 20.25 °C N/A 1,000.23 mbar 0.48 m/s 248.35 Deg N/A
2021-11-09 01:00 N/A 51.43 µg/m3 9.84 µg/m3 20.62 °C N/A 1,000.28 mbar 0.54 m/s 333.71 Deg N/A
2021-11-09 00:00 N/A 52.96 µg/m3 10.86 µg/m3 21 °C N/A 1,000.02 mbar 0.8 m/s 307.33 Deg N/A
2021-11-08 23:00 N/A 42.11 µg/m3 13.52 µg/m3 21.26 °C N/A 999.21 mbar 1.08 m/s 250.12 Deg N/A
2021-11-08 22:00 N/A 47.73 µg/m3 12.52 µg/m3 21.47 °C N/A 998.85 mbar 1.3 m/s 224.05 Deg N/A
2021-11-08 21:00 N/A 50.38 µg/m3 6.89 µg/m3 21.67 °C N/A 999.16 mbar 1.45 m/s 208.9 Deg N/A
2021-11-08 20:00 N/A 54.07 µg/m3 12.22 µg/m3 21.98 °C N/A 999.23 mbar 2.13 m/s 215.42 Deg N/A
2021-11-08 19:00 N/A 48.47 µg/m3 13.79 µg/m3 22.06 °C N/A 998.74 mbar 2.22 m/s 193.28 Deg N/A
2021-11-08 18:00 N/A 43.17 µg/m3 12.01 µg/m3 22.15 °C N/A 998.07 mbar 1.8 m/s 179.57 Deg N/A
2021-11-08 17:00 N/A 45.45 µg/m3 15.51 µg/m3 22.51 °C N/A 998.21 mbar 3.03 m/s 194.27 Deg N/A
2021-11-08 16:00 N/A 38.81 µg/m3 10.61 µg/m3 22.75 °C N/A 997.39 mbar 2.66 m/s 169.75 Deg N/A
2021-11-08 15:00 N/A 47.83 µg/m3 10.82 µg/m3 22.95 °C N/A 998.20 mbar 2.65 m/s 190.8 Deg N/A
2021-11-08 14:00 N/A 53.28 µg/m3 14.83 µg/m3 22.78 °C N/A 998.26 mbar 2.82 m/s 203.97 Deg N/A
2021-11-08 13:00 N/A 52.85 µg/m3 11.77 µg/m3 22.91 °C N/A 998.34 mbar 2.88 m/s 199.85 Deg N/A
2021-11-08 12:00 N/A 54.6 µg/m3 13.58 µg/m3 22.97 °C N/A 998.97 mbar 3.55 m/s 191.22 Deg N/A
2021-11-08 11:00 N/A 52.64 µg/m3 N/A 22.73 °C N/A 999.00 mbar 3.8 m/s 183.77 Deg N/A
2021-11-08 10:00 N/A 51.62 µg/m3 N/A 22.62 °C N/A 999.63 mbar 3.44 m/s 182.3 Deg N/A
2021-11-08 09:00 N/A 43.37 µg/m3 N/A 21.88 °C N/A 999.86 mbar 2.47 m/s 192.23 Deg N/A
2021-11-08 08:00 N/A 29.96 µg/m3 11.16 µg/m3 21.52 °C N/A 999.62 mbar 2.42 m/s 183.6 Deg N/A
2021-11-08 07:00 N/A 38.37 µg/m3 7.27 µg/m3 21.15 °C N/A 999.56 mbar 1.99 m/s 187.8 Deg N/A
2021-11-08 06:00 N/A 51.93 µg/m3 8.95 µg/m3 20.81 °C N/A 999.40 mbar 1.37 m/s 197.57 Deg N/A
2021-11-08 05:00 N/A 56 µg/m3 8.74 µg/m3 20.9 °C N/A 998.91 mbar 1.12 m/s 194.98 Deg N/A
2021-11-08 04:00 N/A 64.23 µg/m3 8.48 µg/m3 20.9 °C N/A 999.10 mbar 2.05 m/s 164.97 Deg N/A
2021-11-08 03:00 N/A 61.85 µg/m3 7.57 µg/m3 21.15 °C N/A 999.40 mbar 2.79 m/s 164.38 Deg N/A
2021-11-08 02:00 N/A 47.21 µg/m3 8.08 µg/m3 21.38 °C N/A 1,000.06 mbar 3.11 m/s 160.78 Deg N/A
2021-11-08 01:00 N/A 53.4 µg/m3 8.74 µg/m3 21.45 °C N/A 1,000.78 mbar 2.24 m/s 170.07 Deg N/A
2021-11-08 00:00 N/A 56.42 µg/m3 8.17 µg/m3 21.46 °C N/A 1,001.79 mbar 2.23 m/s 174.7 Deg N/A
2021-11-07 23:00 N/A 52.95 µg/m3 10.23 µg/m3 21.54 °C N/A 1,001.69 mbar 2.04 m/s 163.7 Deg N/A
2021-11-07 22:00 N/A 54.03 µg/m3 7.23 µg/m3 21.59 °C N/A 1,001.99 mbar 2.48 m/s 181.18 Deg N/A
2021-11-07 21:00 N/A 58.26 µg/m3 9.42 µg/m3 21.74 °C N/A 1,001.41 mbar 2.44 m/s 165.12 Deg N/A
2021-11-07 20:00 N/A 54.03 µg/m3 11.2 µg/m3 21.84 °C N/A 1,001.51 mbar 2.28 m/s 175.37 Deg N/A
2021-11-07 19:00 N/A 43.86 µg/m3 12.75 µg/m3 22.07 °C N/A 1,001.58 mbar 2.23 m/s 162.32 Deg N/A
2021-11-07 18:00 N/A 46.29 µg/m3 12.11 µg/m3 22.09 °C N/A 1,001.62 mbar 1.96 m/s 195.4 Deg N/A
2021-11-07 17:00 N/A 57.75 µg/m3 11.88 µg/m3 22.12 °C N/A 1,000.96 mbar 1.97 m/s 260.59 Deg N/A
2021-11-07 16:00 N/A 62.38 µg/m3 10.65 µg/m3 22.45 °C N/A 1,002.24 mbar 0.75 m/s 329.38 Deg N/A
2021-11-07 15:00 N/A 58.21 µg/m3 11.05 µg/m3 23.48 °C N/A 1,001.66 mbar 2.36 m/s 210.75 Deg N/A
2021-11-07 14:00 N/A 59.78 µg/m3 9.86 µg/m3 23.67 °C N/A 1,001.81 mbar 2.58 m/s 202.88 Deg N/A
2021-11-07 13:00 N/A 61.63 µg/m3 8.8 µg/m3 24.04 °C N/A 1,001.62 mbar 3.98 m/s 202.47 Deg N/A
2021-11-07 12:00 N/A 61.32 µg/m3 11.03 µg/m3 24.09 °C N/A 1,002.04 mbar 4.26 m/s 193.65 Deg N/A
2021-11-07 11:00 N/A 59.27 µg/m3 9.99 µg/m3 23.69 °C N/A 1,002.58 mbar 4.48 m/s 200.5 Deg N/A
2021-11-07 10:00 N/A 60.72 µg/m3 8.29 µg/m3 23.37 °C N/A 1,002.61 mbar 4.64 m/s 188.62 Deg N/A
2021-11-07 09:00 N/A 61.45 µg/m3 8.63 µg/m3 23.19 °C N/A 1,002.71 mbar 4.12 m/s 198.78 Deg N/A
2021-11-07 08:00 N/A 62.96 µg/m3 8.93 µg/m3 22.89 °C N/A 1,002.17 mbar 3.94 m/s 186.38 Deg N/A
2021-11-07 07:00 N/A 64.77 µg/m3 8.89 µg/m3 22.67 °C N/A 1,001.75 mbar 3.64 m/s 190.4 Deg N/A
2021-11-07 06:00 N/A 66.43 µg/m3 8.8 µg/m3 23.09 °C N/A 1,001.23 mbar 4.42 m/s 181.35 Deg N/A
2021-11-07 05:00 N/A 67.87 µg/m3 8.85 µg/m3 23.09 °C N/A 1,001.19 mbar 4.71 m/s 182.58 Deg N/A
2021-11-07 04:00 N/A 66.24 µg/m3 10.08 µg/m3 22.88 °C N/A 1,001.10 mbar 4.74 m/s 178.67 Deg N/A
2021-11-07 03:00 N/A 57.32 µg/m3 9.78 µg/m3 22.63 °C N/A 1,001.32 mbar 4.33 m/s 175.03 Deg N/A
2021-11-07 02:00 N/A 46.36 µg/m3 10.25 µg/m3 22.63 °C N/A 1,001.44 mbar 4.56 m/s 170.65 Deg N/A
2021-11-07 01:00 N/A 52.96 µg/m3 8.76 µg/m3 22.74 °C N/A 1,001.48 mbar 4.22 m/s 174.85 Deg N/A
2021-11-07 00:00 N/A 55.15 µg/m3 8.7 µg/m3 22.9 °C N/A 1,001.58 mbar 4.23 m/s 171.45 Deg N/A
2021-11-06 23:00 N/A 49.46 µg/m3 9.12 µg/m3 23.01 °C N/A 1,001.36 mbar 4.55 m/s 171.25 Deg N/A
2021-11-06 22:00 N/A 53.73 µg/m3 10.29 µg/m3 23.14 °C N/A 1,001.33 mbar 4.51 m/s 168.93 Deg N/A
2021-11-06 21:00 N/A 55.24 µg/m3 9.38 µg/m3 23.38 °C N/A 1,001.18 mbar 4.39 m/s 172.12 Deg N/A
2021-11-06 20:00 N/A 59.69 µg/m3 11.63 µg/m3 23.37 °C N/A 1,001.26 mbar 3.76 m/s 179.82 Deg N/A
2021-11-06 19:00 N/A 58.16 µg/m3 11.69 µg/m3 23.55 °C N/A 1,001.05 mbar 4.27 m/s 188.45 Deg N/A
2021-11-06 18:00 N/A 56.62 µg/m3 9.5 µg/m3 23.6 °C N/A 1,000.89 mbar 4.34 m/s 182.03 Deg N/A
2021-11-06 17:00 N/A 55.88 µg/m3 10.71 µg/m3 24.06 °C N/A 1,000.77 mbar 3.82 m/s 186.98 Deg N/A
2021-11-06 16:00 N/A 55.35 µg/m3 12.22 µg/m3 24.66 °C N/A 1,000.88 mbar 3.91 m/s 188.51 Deg N/A
2021-11-06 15:00 N/A 54.14 µg/m3 11.69 µg/m3 24.76 °C N/A 1,001.13 mbar 3.9 m/s 195.13 Deg N/A
2021-11-06 14:00 N/A 51.72 µg/m3 11.35 µg/m3 24.65 °C N/A 1,001.60 mbar 3.64 m/s 207.07 Deg N/A
2021-11-06 13:00 N/A 50.52 µg/m3 11.46 µg/m3 24.73 °C N/A 1,001.79 mbar 3.74 m/s 207.85 Deg N/A
2021-11-06 12:00 N/A 48.94 µg/m3 13.79 µg/m3 24.74 °C N/A 1,002.01 mbar 3.67 m/s 199.82 Deg N/A
2021-11-06 11:00 N/A 43.08 µg/m3 19.08 µg/m3 24.95 °C N/A 1,001.92 mbar 3.5 m/s 197.08 Deg N/A
2021-11-06 10:00 N/A 40.93 µg/m3 14.02 µg/m3 25.49 °C N/A 1,001.52 mbar 3.45 m/s 187.47 Deg N/A
2021-11-06 09:00 N/A 35.65 µg/m3 14.77 µg/m3 24.54 °C N/A 1,001.41 mbar 3.44 m/s 184.32 Deg N/A
2021-11-06 08:00 N/A 17.35 µg/m3 14.53 µg/m3 23.07 °C N/A 1,001.26 mbar 2.33 m/s 186.32 Deg N/A
2021-11-06 07:00 N/A 14.18 µg/m3 11.58 µg/m3 21.59 °C N/A 1,000.84 mbar 0.8 m/s 194.75 Deg N/A
2021-11-06 06:00 N/A 18.85 µg/m3 11.69 µg/m3 20.83 °C N/A 1,000.50 mbar 1.06 m/s 189.44 Deg N/A
2021-11-06 05:00 N/A 21.58 µg/m3 11.12 µg/m3 20.62 °C N/A 1,000.48 mbar 0.87 m/s 187.35 Deg N/A
2021-11-06 04:00 N/A 40.98 µg/m3 11.27 µg/m3 20.82 °C N/A 1,000.75 mbar 1.69 m/s 193.59 Deg N/A
2021-11-06 03:00 N/A 49.97 µg/m3 13.83 µg/m3 20.88 °C N/A 1,001.02 mbar 1.66 m/s 183.63 Deg N/A
2021-11-06 02:00 N/A 45.11 µg/m3 10.69 µg/m3 20.79 °C N/A 1,001.40 mbar 1.26 m/s 174.8 Deg N/A
2021-11-06 01:00 N/A 42.13 µg/m3 14.22 µg/m3 20.83 °C N/A 1,001.12 mbar 1.3 m/s 199.21 Deg N/A
2021-11-06 00:00 N/A 26.79 µg/m3 15.19 µg/m3 20.69 °C N/A 1,001.03 mbar 1.22 m/s 99.4 Deg N/A
2021-11-05 23:00 N/A 7.72 µg/m3 18.48 µg/m3 20.66 °C N/A 1,000.20 mbar 0.76 m/s 306.47 Deg N/A
2021-11-05 22:00 N/A 0.84 µg/m3 22.07 µg/m3 20.78 °C N/A 999.79 mbar 0.71 m/s 262.47 Deg N/A
2021-11-05 21:00 N/A 0.63 µg/m3 22.05 µg/m3 20.84 °C N/A 999.47 mbar 0.96 m/s 265.13 Deg N/A
2021-11-05 20:00 N/A 0.64 µg/m3 21.01 µg/m3 21.1 °C N/A 999.86 mbar 0.76 m/s 254.58 Deg N/A
2021-11-05 19:00 N/A 0.76 µg/m3 23.81 µg/m3 21.17 °C N/A 999.61 mbar 1.02 m/s 221.67 Deg N/A
2021-11-05 18:00 N/A 0.94 µg/m3 23.17 µg/m3 21.2 °C N/A 999.66 mbar 0.74 m/s 283.2 Deg N/A
2021-11-05 17:00 N/A 11.08 µg/m3 16.95 µg/m3 21.21 °C N/A 999.17 mbar 1.18 m/s 166.55 Deg N/A
2021-11-05 16:00 N/A 28.38 µg/m3 20.54 µg/m3 21.09 °C N/A 999.19 mbar 2.41 m/s 166.12 Deg N/A
2021-11-05 15:00 N/A 36.39 µg/m3 14.92 µg/m3 21.33 °C N/A 998.95 mbar 3.32 m/s 152.8 Deg N/A
2021-11-05 14:00 N/A 51.29 µg/m3 11.41 µg/m3 21.71 °C N/A 999.25 mbar 2.12 m/s 154.87 Deg N/A
2021-11-05 13:00 N/A 64.54 µg/m3 11.33 µg/m3 21.54 °C N/A 999.72 mbar 2.62 m/s 167.38 Deg N/A
2021-11-05 12:00 N/A 61.81 µg/m3 12.05 µg/m3 21.28 °C N/A 1,000.83 mbar 1.75 m/s 268.4 Deg N/A
2021-11-05 11:00 N/A 52.13 µg/m3 12.84 µg/m3 21.3 °C N/A 1,001.31 mbar 1.64 m/s 213.63 Deg N/A
2021-11-05 10:00 N/A 49.77 µg/m3 14.05 µg/m3 20.96 °C N/A 1,001.96 mbar 0.85 m/s 95.79 Deg N/A
2021-11-05 09:00 N/A 20.93 µg/m3 15.47 µg/m3 19.88 °C N/A 1,000.96 mbar 0.69 m/s 189.22 Deg N/A
2021-11-05 08:00 N/A 3.07 µg/m3 10.73 µg/m3 18.12 °C N/A 1,000.24 mbar 0.42 m/s 246.45 Deg N/A
2021-11-05 07:00 N/A 2.98 µg/m3 7.13 µg/m3 17.32 °C N/A 999.97 mbar 0.37 m/s 305.98 Deg N/A
2021-11-05 06:00 N/A 13.14 µg/m3 6.55 µg/m3 18.21 °C N/A 1,000.03 mbar 0.43 m/s 320.15 Deg N/A
2021-11-05 05:00 N/A 28.54 µg/m3 5.24 µg/m3 18.45 °C N/A 1,000.26 mbar 0.81 m/s 268.98 Deg N/A
2021-11-05 04:00 N/A 27.21 µg/m3 6.19 µg/m3 17.66 °C N/A 1,000.13 mbar 0.57 m/s 245.63 Deg N/A
2021-11-05 03:00 N/A 23.34 µg/m3 7.11 µg/m3 17.88 °C N/A 1,000.27 mbar 0.58 m/s 262.72 Deg N/A
2021-11-05 02:00 N/A 26.06 µg/m3 5.34 µg/m3 18.72 °C N/A 1,000.21 mbar 0.53 m/s 289.82 Deg N/A
2021-11-05 01:00 N/A 32.3 µg/m3 5.85 µg/m3 19.63 °C N/A 1,000.16 mbar 0.44 m/s 216.28 Deg N/A
2021-11-05 00:00 N/A 53.99 µg/m3 4.9 µg/m3 19.72 °C N/A 1,000.20 mbar 0.69 m/s 291.35 Deg N/A
2021-11-04 23:00 N/A 53.64 µg/m3 5.15 µg/m3 20.28 °C N/A 1,000.01 mbar 0.55 m/s 286.36 Deg N/A
2021-11-04 22:00 N/A 63.78 µg/m3 17.29 µg/m3 21.09 °C N/A 999.57 mbar 1.01 m/s 292.96 Deg N/A
2021-11-04 21:00 N/A 55.39 µg/m3 26.48 µg/m3 21.94 °C N/A 999.14 mbar 2.08 m/s 285.9 Deg N/A
2021-11-04 20:00 N/A 62.38 µg/m3 22.3 µg/m3 22.21 °C N/A 998.55 mbar 2.27 m/s 266.05 Deg N/A
2021-11-04 19:00 N/A 71.93 µg/m3 15.49 µg/m3 22.85 °C N/A 998.01 mbar 2.23 m/s 251.87 Deg N/A
2021-11-04 18:00 N/A 66.48 µg/m3 13.56 µg/m3 23 °C N/A 997.49 mbar 2.28 m/s 239.85 Deg N/A
2021-11-04 17:00 N/A 65.18 µg/m3 13.52 µg/m3 23.28 °C N/A 996.89 mbar 2.33 m/s 231.38 Deg N/A
2021-11-04 16:00 N/A 69.5 µg/m3 17.17 µg/m3 24.4 °C N/A 996.65 mbar 2.72 m/s 230.42 Deg N/A
2021-11-04 15:00 N/A 65.98 µg/m3 16.97 µg/m3 25.3 °C N/A 996.38 mbar 2.73 m/s 227.43 Deg N/A
2021-11-04 14:00 N/A 62.57 µg/m3 17.27 µg/m3 25.53 °C N/A 996.83 mbar 3.34 m/s 230.02 Deg N/A
2021-11-04 13:00 N/A 58.8 µg/m3 16.19 µg/m3 25.79 °C N/A 997.03 mbar 3.48 m/s 227.12 Deg N/A
2021-11-04 12:00 N/A 56.22 µg/m3 15.17 µg/m3 25.34 °C N/A 997.56 mbar 3.13 m/s 229.3 Deg N/A
2021-11-04 11:00 N/A 51.28 µg/m3 13.96 µg/m3 24.91 °C N/A 998.17 mbar 3.32 m/s 227.33 Deg N/A
2021-11-04 10:00 N/A 50.53 µg/m3 14.89 µg/m3 24.38 °C N/A 998.19 mbar 3.82 m/s 209.55 Deg N/A
2021-11-04 09:00 N/A 48.66 µg/m3 13.28 µg/m3 24.19 °C N/A 998.18 mbar 2.98 m/s 218.7 Deg N/A
2021-11-04 08:00 N/A 48.27 µg/m3 11.71 µg/m3 23.53 °C N/A 997.87 mbar 2.92 m/s 214.02 Deg N/A
2021-11-04 07:00 N/A 50.42 µg/m3 11.54 µg/m3 22.81 °C N/A 997.56 mbar 3.3 m/s 206.6 Deg N/A
2021-11-04 06:00 N/A 51.23 µg/m3 12.54 µg/m3 22.8 °C N/A 997.73 mbar 3.18 m/s 209.93 Deg N/A
2021-11-04 05:00 N/A 53.97 µg/m3 12.09 µg/m3 22.76 °C N/A 998.06 mbar 3.32 m/s 205.5 Deg N/A
2021-11-04 04:00 N/A 58.01 µg/m3 11.46 µg/m3 23.01 °C N/A 998.26 mbar 3.35 m/s 206.3 Deg N/A
2021-11-04 03:00 N/A 60.07 µg/m3 11.77 µg/m3 22.93 °C N/A 998.67 mbar 3.14 m/s 201.65 Deg N/A
2021-11-04 02:00 N/A 64.6 µg/m3 13.26 µg/m3 22.81 °C N/A 999.04 mbar 2.78 m/s 204.8 Deg N/A
2021-11-04 01:00 N/A 64.21 µg/m3 13.26 µg/m3 22.34 °C N/A 999.26 mbar 2.69 m/s 203.55 Deg N/A
2021-11-04 00:00 N/A 69.99 µg/m3 13.49 µg/m3 22.06 °C N/A 999.62 mbar 2.45 m/s 206.87 Deg N/A
2021-11-03 23:00 N/A 80.71 µg/m3 13.62 µg/m3 21.94 °C N/A 999.91 mbar 3.34 m/s 202.85 Deg N/A
2021-11-03 22:00 N/A 84.68 µg/m3 12.92 µg/m3 21.89 °C N/A 999.77 mbar 3.1 m/s 210.83 Deg N/A
2021-11-03 21:00 N/A 87.15 µg/m3 14.53 µg/m3 21.85 °C N/A 999.64 mbar 3.04 m/s 214.58 Deg N/A
2021-11-03 20:00 N/A 87.67 µg/m3 15.28 µg/m3 21.75 °C N/A 999.51 mbar 2.9 m/s 218.67 Deg N/A
2021-11-03 19:00 N/A 88.76 µg/m3 13.28 µg/m3 21.85 °C N/A 999.22 mbar 2.86 m/s 213.28 Deg N/A
2021-11-03 18:00 N/A 87.6 µg/m3 13.11 µg/m3 22.09 °C N/A 999.13 mbar 2.43 m/s 223.33 Deg N/A
2021-11-03 17:00 N/A 85.13 µg/m3 12.2 µg/m3 22.62 °C N/A 999.09 mbar 2.67 m/s 221.05 Deg N/A
2021-11-03 16:00 N/A 77.48 µg/m3 9.55 µg/m3 23.18 °C N/A 999.28 mbar 3.39 m/s 226.58 Deg N/A
2021-11-03 15:00 N/A 69.08 µg/m3 6.17 µg/m3 23.49 °C N/A 999.55 mbar 3.4 m/s 227.13 Deg N/A
2021-11-03 14:00 N/A 74.12 µg/m3 3.9 µg/m3 23.7 °C N/A 999.98 mbar 4.03 m/s 223.12 Deg N/A
2021-11-03 13:00 N/A 78.59 µg/m3 4.2 µg/m3 23.71 °C N/A 1,000.76 mbar 4.03 m/s 216.97 Deg N/A
2021-11-03 12:00 N/A 78.66 µg/m3 4.71 µg/m3 23.52 °C N/A 1,001.61 mbar 4.24 m/s 212.38 Deg N/A
2021-11-03 11:00 N/A 77.81 µg/m3 4.03 µg/m3 23.39 °C N/A 1,002.19 mbar 3.83 m/s 204.82 Deg N/A
2021-11-03 10:00 N/A 76.34 µg/m3 7.53 µg/m3 22.96 °C N/A 1,002.25 mbar 3.72 m/s 215.18 Deg N/A
2021-11-03 09:00 N/A 71.42 µg/m3 4.01 µg/m3 22.3 °C N/A 1,002.19 mbar 3.03 m/s 212.02 Deg N/A
2021-11-03 08:00 N/A 63.04 µg/m3 3.37 µg/m3 21.03 °C N/A 1,001.80 mbar 2.11 m/s 209.7 Deg N/A
2021-11-03 07:00 N/A 59.43 µg/m3 3.31 µg/m3 19.8 °C N/A 1,001.62 mbar 1.83 m/s 204.7 Deg N/A
2021-11-03 06:00 N/A 62.99 µg/m3 2.48 µg/m3 19.41 °C N/A 1,001.70 mbar 1.6 m/s 204.93 Deg N/A
2021-11-03 05:00 N/A 54.87 µg/m3 1.16 µg/m3 18.57 °C N/A 1,001.92 mbar 0.94 m/s 186.6 Deg N/A
2021-11-03 04:00 N/A 57.05 µg/m3 1.76 µg/m3 18.31 °C N/A 1,001.97 mbar 0.45 m/s 197.02 Deg N/A
2021-11-03 03:00 N/A 56.28 µg/m3 2.14 µg/m3 18.09 °C N/A 1,002.31 mbar 0.44 m/s 209.16 Deg N/A
2021-11-03 02:00 N/A 62.94 µg/m3 1.9 µg/m3 18.21 °C N/A 1,002.53 mbar 0.8 m/s 275.83 Deg N/A
2021-11-03 01:00 N/A 58.65 µg/m3 3.67 µg/m3 18.04 °C N/A 1,002.89 mbar 0.97 m/s 281.36 Deg N/A
2021-11-03 00:00 N/A 40.04 µg/m3 5.24 µg/m3 17.47 °C N/A 1,003.00 mbar 0.84 m/s 281.73 Deg N/A
2021-11-02 23:00 N/A 22.04 µg/m3 6.51 µg/m3 17.34 °C N/A 1,003.19 mbar 0.8 m/s 288.77 Deg N/A
2021-11-02 22:00 N/A 22.81 µg/m3 5.87 µg/m3 17.65 °C N/A 1,003.15 mbar 0.61 m/s 285.04 Deg N/A
2021-11-02 21:00 N/A 16.34 µg/m3 6 µg/m3 18.07 °C N/A 1,002.91 mbar 0.47 m/s 281.5 Deg N/A
2021-11-02 20:00 N/A 29.08 µg/m3 3.99 µg/m3 18.93 °C N/A 1,002.57 mbar 0.37 m/s 267.81 Deg N/A
2021-11-02 19:00 N/A 65 µg/m3 2.75 µg/m3 19.54 °C N/A 1,002.08 mbar 0.62 m/s 171.9 Deg N/A
2021-11-02 18:00 N/A 74.99 µg/m3 4.11 µg/m3 20.24 °C N/A 1,001.54 mbar 0.83 m/s 324.88 Deg N/A
2021-11-02 17:00 N/A 80.45 µg/m3 4.43 µg/m3 21.45 °C N/A 1,001.02 mbar 1.04 m/s 320.37 Deg N/A
2021-11-02 16:00 N/A 85.1 µg/m3 4.81 µg/m3 22.4 °C N/A 1,000.87 mbar 1.8 m/s 338.83 Deg N/A
2021-11-02 15:00 N/A 83.93 µg/m3 6.3 µg/m3 22.74 °C N/A 1,000.81 mbar 1.73 m/s 336.5 Deg N/A
2021-11-02 14:00 N/A 82.76 µg/m3 5.92 µg/m3 23.09 °C N/A 1,000.84 mbar 1.98 m/s 325.43 Deg N/A
2021-11-02 13:00 N/A 80.98 µg/m3 5.07 µg/m3 23.01 °C N/A 1,001.02 mbar 2.29 m/s 338.67 Deg N/A
2021-11-02 12:00 N/A 77.69 µg/m3 6.09 µg/m3 22.7 °C N/A 1,001.45 mbar 2.77 m/s 345.48 Deg N/A
2021-11-02 11:00 N/A 73.43 µg/m3 8.65 µg/m3 22.51 °C N/A 1,001.52 mbar 1.78 m/s 332.31 Deg N/A
2021-11-02 10:00 N/A 68.29 µg/m3 5.87 µg/m3 22.06 °C N/A 1,001.19 mbar 2.45 m/s 347.95 Deg N/A
2021-11-02 09:00 N/A 66.08 µg/m3 3.88 µg/m3 21.99 °C N/A 1,000.64 mbar 1.7 m/s 332.96 Deg N/A
2021-11-02 08:00 N/A 57.11 µg/m3 5.7 µg/m3 21.37 °C N/A 1,000.21 mbar 1.3 m/s 326.95 Deg N/A
2021-11-02 07:00 N/A 41.77 µg/m3 8.06 µg/m3 21.57 °C N/A 999.64 mbar 1.16 m/s 310.59 Deg N/A
2021-11-02 06:00 N/A 55.41 µg/m3 9.12 µg/m3 21.81 °C N/A 999.15 mbar 1.45 m/s 310.15 Deg N/A
2021-11-02 05:00 N/A 60.91 µg/m3 7.13 µg/m3 21.87 °C N/A 998.83 mbar 1.35 m/s 309.37 Deg N/A
2021-11-02 04:00 N/A 66.26 µg/m3 6.66 µg/m3 21.96 °C N/A 998.75 mbar 1.18 m/s 315.38 Deg N/A
2021-11-02 03:00 N/A 66.91 µg/m3 7.06 µg/m3 21.89 °C N/A 998.66 mbar 2.06 m/s 299.53 Deg N/A
2021-11-02 02:00 N/A 68.72 µg/m3 7.49 µg/m3 21.94 °C N/A 998.65 mbar 1.61 m/s 284.82 Deg N/A
2021-11-02 01:00 N/A 71.17 µg/m3 7.91 µg/m3 22.04 °C N/A 999.11 mbar 1.72 m/s 283.88 Deg N/A
2021-11-02 00:00 N/A 69.8 µg/m3 6.49 µg/m3 21.95 °C N/A 999.65 mbar 1.9 m/s 276.37 Deg N/A
2021-11-01 23:00 N/A 69.2 µg/m3 4.96 µg/m3 21.81 °C N/A 999.87 mbar 2 m/s 276.26 Deg N/A
2021-11-01 22:00 N/A 67.11 µg/m3 6.34 µg/m3 21.69 °C N/A 999.55 mbar 1.5 m/s 290.88 Deg N/A
2021-11-01 21:00 N/A 59.97 µg/m3 6.6 µg/m3 21.51 °C N/A 999.51 mbar 1.31 m/s 299.59 Deg N/A
2021-11-01 20:00 N/A 61.86 µg/m3 5.03 µg/m3 21.35 °C N/A 999.48 mbar 1.02 m/s 309.24 Deg N/A
2021-11-01 19:00 N/A 52.32 µg/m3 4.92 µg/m3 21.29 °C N/A 999.21 mbar 0.65 m/s 306.69 Deg N/A
2021-11-01 18:00 N/A 54.58 µg/m3 6.64 µg/m3 21.62 °C N/A 998.60 mbar 0.62 m/s 305.29 Deg N/A
2021-11-01 17:00 N/A 58.37 µg/m3 6.21 µg/m3 22.24 °C N/A 998.47 mbar 1.09 m/s 316 Deg N/A
2021-11-01 16:00 N/A 59.88 µg/m3 5.96 µg/m3 22.79 °C N/A 998.29 mbar 1.17 m/s 317.2 Deg N/A
2021-11-01 15:00 N/A 60.34 µg/m3 6.17 µg/m3 23 °C N/A 998.00 mbar 1.38 m/s 314.77 Deg N/A
2021-11-01 14:00 N/A 60.01 µg/m3 7 µg/m3 22.95 °C N/A 998.19 mbar 2.08 m/s 308.17 Deg N/A
2021-11-01 13:00 N/A 56.27 µg/m3 6.74 µg/m3 23.06 °C N/A 998.59 mbar 1.76 m/s 322.3 Deg N/A
2021-11-01 12:00 N/A 56.32 µg/m3 7.21 µg/m3 22.84 °C N/A 998.95 mbar 1.94 m/s 313.25 Deg N/A
2021-11-01 11:00 N/A 53.36 µg/m3 7.23 µg/m3 22.59 °C N/A 999.42 mbar 1.72 m/s 310 Deg N/A
2021-11-01 10:00 N/A 53.56 µg/m3 6.85 µg/m3 21.36 °C N/A 999.43 mbar 1.59 m/s 317.9 Deg N/A
2021-11-01 09:00 N/A 66.64 µg/m3 6.68 µg/m3 21.11 °C N/A 999.18 mbar 2.03 m/s 287.03 Deg N/A
2021-11-01 08:00 N/A 61.95 µg/m3 6.53 µg/m3 20.81 °C N/A 998.92 mbar 1.59 m/s 268.07 Deg N/A
2021-11-01 07:00 N/A 60.35 µg/m3 6.43 µg/m3 20.48 °C N/A 998.78 mbar 1.17 m/s 248.48 Deg N/A
2021-11-01 06:00 N/A 52 µg/m3 5.26 µg/m3 19.19 °C N/A 999.06 mbar 0.76 m/s 211.82 Deg N/A
2021-11-01 05:00 N/A 66.07 µg/m3 3.6 µg/m3 18.4 °C N/A 999.52 mbar 1.05 m/s 177.37 Deg N/A
2021-11-01 04:00 N/A 67.62 µg/m3 4.77 µg/m3 18.02 °C N/A 1,000.00 mbar 1.5 m/s 187.85 Deg N/A
2021-11-01 03:00 N/A 61.76 µg/m3 7.15 µg/m3 17.64 °C N/A 1,000.71 mbar 1.43 m/s 177.58 Deg N/A
2021-11-01 02:00 N/A 46.67 µg/m3 7.83 µg/m3 17.32 °C N/A 1,001.22 mbar 1.05 m/s 180.63 Deg N/A
2021-11-01 01:00 N/A 42.79 µg/m3 7.85 µg/m3 17.03 °C N/A 1,002.04 mbar 0.62 m/s 207.16 Deg N/A
2021-11-01 00:00 N/A 52.87 µg/m3 8.36 µg/m3 16.79 °C N/A 1,002.35 mbar 1.2 m/s 192.67 Deg N/A
2021-10-31 23:00 N/A 60.35 µg/m3 6.23 µg/m3 16.97 °C N/A 1,002.91 mbar 0.79 m/s 198.45 Deg N/A
2021-10-31 22:00 N/A 70.36 µg/m3 5.09 µg/m3 16.99 °C N/A 1,003.62 mbar 0.68 m/s 244 Deg N/A
2021-10-31 21:00 N/A 60.47 µg/m3 6.11 µg/m3 18.75 °C N/A 1,003.60 mbar 0.51 m/s 127.42 Deg N/A
2021-10-31 20:00 N/A 53.56 µg/m3 6.62 µg/m3 19.02 °C N/A 1,003.57 mbar 0.79 m/s 194.65 Deg N/A
2021-10-31 19:00 N/A 51.62 µg/m3 6.34 µg/m3 19.47 °C N/A 1,003.54 mbar 0.42 m/s 206.81 Deg N/A
2021-10-31 18:00 N/A 68.84 µg/m3 8.53 µg/m3 19.48 °C N/A 1,002.88 mbar 1.48 m/s 187.38 Deg N/A
2021-10-31 17:00 N/A 76.74 µg/m3 7.76 µg/m3 19.82 °C N/A 1,002.95 mbar 2.41 m/s 178.73 Deg N/A
2021-10-31 16:00 N/A 71.04 µg/m3 4.26 µg/m3 19.82 °C N/A 1,003.13 mbar 1.7 m/s 189.8 Deg N/A
2021-10-31 15:00 N/A 78.39 µg/m3 7.21 µg/m3 20.13 °C N/A 1,003.21 mbar 2.31 m/s 171.7 Deg N/A
2021-10-31 14:00 N/A 72.81 µg/m3 7.95 µg/m3 20.22 °C N/A 1,003.66 mbar 2.02 m/s 162.75 Deg N/A
2021-10-31 13:00 N/A 73.95 µg/m3 7.64 µg/m3 20.47 °C N/A 1,004.32 mbar 1.65 m/s 158.8 Deg N/A
2021-10-31 12:00 N/A 68.23 µg/m3 7.15 µg/m3 20.46 °C N/A 1,005.18 mbar 1.7 m/s 176.93 Deg N/A
2021-10-31 11:00 N/A 70.38 µg/m3 9.48 µg/m3 19.58 °C N/A 1,005.61 mbar 1.35 m/s 171.75 Deg N/A
2021-10-31 10:00 N/A 48.4 µg/m3 10.95 µg/m3 18.99 °C N/A 1,005.96 mbar 0.91 m/s 164.3 Deg N/A
2021-10-31 09:00 N/A 31.83 µg/m3 8.99 µg/m3 18.6 °C N/A 1,006.06 mbar 0.62 m/s 192.44 Deg N/A
2021-10-31 08:00 N/A 29.24 µg/m3 8.53 µg/m3 18.17 °C N/A 1,005.97 mbar 0.41 m/s 270.18 Deg N/A
2021-10-31 07:00 N/A 38.18 µg/m3 6.89 µg/m3 17.8 °C N/A 1,005.59 mbar 0.54 m/s 272.19 Deg N/A
2021-10-31 06:00 N/A 42.24 µg/m3 6 µg/m3 17.8 °C N/A 1,005.31 mbar 0.56 m/s 233.96 Deg N/A
2021-10-31 05:00 N/A 65.08 µg/m3 7.68 µg/m3 17.99 °C N/A 1,005.52 mbar 0.92 m/s 218.56 Deg N/A
2021-10-31 04:00 N/A 46.82 µg/m3 9.8 µg/m3 18.37 °C N/A 1,005.58 mbar 0.63 m/s 170.52 Deg N/A
2021-10-31 03:00 N/A 36.61 µg/m3 10.5 µg/m3 18.16 °C N/A 1,005.64 mbar 0.66 m/s 273.77 Deg N/A
2021-10-31 02:00 N/A 22.16 µg/m3 8.91 µg/m3 18.26 °C N/A 1,005.78 mbar 0.5 m/s 279.14 Deg N/A
2021-10-31 01:00 N/A 27.49 µg/m3 9.25 µg/m3 18.68 °C N/A 1,005.87 mbar 0.46 m/s 296.87 Deg N/A
2021-10-31 00:00 N/A 29 µg/m3 7.44 µg/m3 18.71 °C N/A 1,005.97 mbar 0.34 m/s 327.53 Deg N/A
2021-10-30 23:00 N/A 34.87 µg/m3 8.59 µg/m3 18.79 °C N/A 1,006.04 mbar 0.42 m/s 289.38 Deg N/A
2021-10-30 22:00 N/A 55.53 µg/m3 8.38 µg/m3 18.99 °C N/A 1,006.03 mbar 0.45 m/s 191.15 Deg N/A
2021-10-30 21:00 N/A 57.95 µg/m3 6.89 µg/m3 19.12 °C N/A 1,005.54 mbar 0.57 m/s 120.84 Deg N/A
2021-10-30 20:00 N/A 69.03 µg/m3 5.47 µg/m3 19.49 °C N/A 1,005.06 mbar 0.78 m/s 119.27 Deg N/A
2021-10-30 19:00 N/A 73.22 µg/m3 5.7 µg/m3 19.72 °C N/A 1,004.75 mbar 0.96 m/s 111.37 Deg N/A
2021-10-30 18:00 N/A 73.26 µg/m3 5.45 µg/m3 19.78 °C N/A 1,004.25 mbar 1.06 m/s 34.25 Deg N/A
2021-10-30 17:00 N/A 81.15 µg/m3 4.73 µg/m3 20.03 °C N/A 1,003.77 mbar 1.68 m/s 100.67 Deg N/A
2021-10-30 16:00 N/A 81.77 µg/m3 4.54 µg/m3 20.73 °C N/A 1,003.19 mbar 1.7 m/s 11.77 Deg N/A
2021-10-30 15:00 N/A 85.98 µg/m3 5.3 µg/m3 21.28 °C N/A 1,002.71 mbar 2.28 m/s 14.43 Deg N/A
2021-10-30 14:00 N/A 87.93 µg/m3 6.13 µg/m3 21.41 °C N/A 1,002.55 mbar 2.71 m/s 23.37 Deg N/A
2021-10-30 13:00 N/A 84.69 µg/m3 5.75 µg/m3 21.31 °C N/A 1,002.96 mbar 2.46 m/s 23.98 Deg N/A
2021-10-30 12:00 N/A 81.14 µg/m3 6.32 µg/m3 21.23 °C N/A 1,003.08 mbar 2.55 m/s 28.73 Deg N/A
2021-10-30 11:00 N/A 75.73 µg/m3 5.75 µg/m3 20.72 °C N/A 1,003.35 mbar 2.34 m/s 21.92 Deg N/A
2021-10-30 10:00 N/A 76.26 µg/m3 7.19 µg/m3 20.75 °C N/A 1,003.09 mbar 2.54 m/s 16.93 Deg N/A
2021-10-30 09:00 N/A 73.87 µg/m3 7.83 µg/m3 20.39 °C N/A 1,002.55 mbar 2.71 m/s 22.17 Deg N/A
2021-10-30 08:00 N/A 70.27 µg/m3 6.83 µg/m3 19.65 °C N/A 1,001.94 mbar 2.51 m/s 27.87 Deg N/A
2021-10-30 07:00 N/A 65.99 µg/m3 6.04 µg/m3 18.25 °C N/A 1,001.50 mbar 1.56 m/s 269.45 Deg N/A
2021-10-30 06:00 N/A 71.78 µg/m3 4.94 µg/m3 18.25 °C N/A 1,000.93 mbar 1.57 m/s 351.68 Deg N/A
2021-10-30 05:00 N/A 76.46 µg/m3 3.92 µg/m3 18.59 °C N/A 1,000.71 mbar 2.08 m/s 267.2 Deg N/A
2021-10-30 04:00 N/A 75.69 µg/m3 4.07 µg/m3 18.33 °C N/A 1,000.70 mbar 1.76 m/s 261.12 Deg N/A
2021-10-30 03:00 N/A 75.88 µg/m3 4.13 µg/m3 18.43 °C N/A 1,000.69 mbar 1.68 m/s 338.97 Deg N/A

It is to be noted that the data is provisional and subject to quality assurance procedures. For validated data kindly refer your request to contact.air@era.org.mt